| time (UTC) | temp C | wind direction | speed KPH | gust KPH | rain 1hr cm | rain 24hr cm | rain mn cm | humidity % | barometer mb |
| 20260510104603 | 7 | 71 | 0.0 | 4.8 | 0.00 | 0.81 | 0.00 | 92 | 1013.6 |
| 20260510104424 | 7 | 73 | 0.0 | 4.8 | 0.00 | 0.81 | 0.00 | 92 | 1013.4 |
| 20260510104102 | 7 | 88 | 0.0 | 3.2 | 0.00 | 0.81 | 0.00 | 92 | 1013.4 |
| 20260510103902 | 7 | 0 | 0.0 | 0.0 | 0.00 | 0.81 | 0.00 | 92 | 1013.5 |
| 20260510103403 | 7 | 0 | 0.0 | 0.0 | 0.00 | 0.81 | 0.00 | 92 | 1013.4 |
| 20260510103303 | 7 | 0 | 0.0 | 0.0 | 0.00 | 0.81 | 0.00 | 92 | 1013.5 |
| 20260510103202 | 7 | 0 | 0.0 | 0.0 | 0.00 | 0.81 | 0.00 | 92 | 1013.3 |
| 20260510103103 | 7 | 0 | 0.0 | 0.0 | 0.00 | 0.81 | 0.00 | 92 | 1013.2 |
| 20260510102802 | 7 | 0 | 0.0 | 0.0 | 0.00 | 0.81 | 0.00 | 92 | 1013.1 |
| 20260510102703 | 7 | 0 | 0.0 | 0.0 | 0.00 | 0.81 | 0.00 | 92 | 1013.0 |
| 20260510102503 | 7 | 0 | 0.0 | 0.0 | 0.00 | 0.81 | 0.00 | 92 | 1013.1 |
| 20260510102404 | 7 | 0 | 0.0 | 0.0 | 0.00 | 0.81 | 0.00 | 92 | 1013.0 |
| 20260510102305 | 7 | 0 | 0.0 | 0.0 | 0.00 | 0.81 | 0.00 | 92 | 1013.1 |
| 20260510102202 | 7 | 0 | 0.0 | 0.0 | 0.00 | 0.81 | 0.00 | 92 | 1013.0 |
| 20260510102003 | 7 | 0 | 0.0 | 0.0 | 0.00 | 0.81 | 0.00 | 92 | 1012.9 |
| 20260510101803 | 7 | 0 | 0.0 | 0.0 | 0.00 | 0.81 | 0.00 | 92 | 1013.1 |
| 20260510101702 | 7 | 0 | 0.0 | 0.0 | 0.00 | 0.81 | 0.00 | 93 | 1012.8 |
| 20260510101603 | 7 | 0 | 0.0 | 0.0 | 0.00 | 0.81 | 0.00 | 93 | 1012.9 |
| 20260510101503 | 7 | 0 | 0.0 | 0.0 | 0.00 | 0.81 | 0.00 | 93 | 1012.9 |
| 20260510101302 | 7 | 0 | 0.0 | 0.0 | 0.00 | 0.81 | 0.00 | 93 | 1013.1 |
| 20260510101203 | 7 | 0 | 0.0 | 0.0 | 0.00 | 0.81 | 0.00 | 93 | 1013.0 |
| 20260510101103 | 7 | 0 | 0.0 | 0.0 | 0.00 | 0.81 | 0.00 | 93 | 1013.1 |
| 20260510100903 | 7 | 0 | 0.0 | 0.0 | 0.00 | 0.81 | 0.00 | 93 | 1013.0 |
| 20260510100802 | 7 | 0 | 0.0 | 0.0 | 0.00 | 0.81 | 0.00 | 93 | 1013.2 |
| 20260510100603 | 7 | 94 | 0.0 | 1.6 | 0.00 | 0.81 | 0.00 | 93 | 1013.0 |
| 20260510100402 | 7 | 79 | 0.0 | 3.2 | 0.00 | 0.81 | 0.00 | 93 | 1012.9 |
| 20260510100202 | 7 | 83 | 0.0 | 3.2 | 0.00 | 0.81 | 0.00 | 93 | 1012.8 |
| 20260510095923 | 7 | 83 | 1.6 | 3.2 | 0.00 | 0.81 | 0.00 | 94 | 1012.7 |
| 20260510095802 | 7 | 83 | 1.6 | 3.2 | 0.00 | 0.81 | 0.00 | 94 | 1012.8 |
| 20260510095723 | 7 | 83 | 1.6 | 3.2 | 0.00 | 0.81 | 0.00 | 94 | 1012.7 |
| 20260510095602 | 7 | 82 | 1.6 | 3.2 | 0.00 | 0.81 | 0.00 | 94 | 1012.5 |
| 20260510095305 | 7 | 86 | 0.0 | 3.2 | 0.00 | 0.81 | 0.00 | 94 | 1012.5 |
| 20260510095102 | 7 | 84 | 0.0 | 3.2 | 0.00 | 0.81 | 0.00 | 94 | 1012.8 |
| 20260510094902 | 7 | 85 | 0.0 | 1.6 | 0.00 | 0.81 | 0.00 | 94 | 1012.7 |
| 20260510094503 | 7 | 85 | 0.0 | 1.6 | 0.00 | 0.81 | 0.00 | 94 | 1012.8 |
| 20260510094303 | 7 | 85 | 0.0 | 1.6 | 0.00 | 0.81 | 0.00 | 94 | 1012.8 |
| 20260510094003 | 7 | 85 | 0.0 | 1.6 | 0.00 | 0.81 | 0.00 | 94 | 1012.9 |
| 20260510093803 | 7 | 88 | 0.0 | 1.6 | 0.00 | 0.81 | 0.00 | 94 | 1012.6 |
| 20260510093603 | 7 | 88 | 0.0 | 1.6 | 0.00 | 0.81 | 0.00 | 94 | 1012.6 |
| 20260510093424 | 7 | 88 | 0.0 | 1.6 | 0.00 | 0.81 | 0.00 | 94 | 1012.5 |
| 20260510093303 | 7 | 88 | 0.0 | 1.6 | 0.00 | 0.81 | 0.00 | 94 | 1012.5 |
| 20260510093103 | 7 | 97 | 0.0 | 1.6 | 0.00 | 0.81 | 0.00 | 94 | 1012.6 |
| 20260510093024 | 7 | 97 | 0.0 | 1.6 | 0.00 | 0.81 | 0.00 | 94 | 1012.5 |
| 20260510092903 | 7 | 0 | 0.0 | 0.0 | 0.00 | 0.81 | 0.00 | 94 | 1012.5 |
| 20260510092824 | 7 | 0 | 0.0 | 0.0 | 0.00 | 0.81 | 0.00 | 94 | 1012.5 |
| 20260510092703 | 7 | 0 | 0.0 | 0.0 | 0.00 | 0.81 | 0.00 | 94 | 1012.3 |
| 20260510092103 | 7 | 0 | 0.0 | 0.0 | 0.00 | 0.81 | 0.00 | 94 | 1012.3 |
| 20260510091903 | 7 | 0 | 0.0 | 0.0 | 0.00 | 0.81 | 0.00 | 94 | 1012.4 |
| 20260510091802 | 7 | 0 | 0.0 | 0.0 | 0.00 | 0.81 | 0.00 | 94 | 1012.3 |
| 20260510091624 | 7 | 0 | 0.0 | 0.0 | 0.00 | 0.81 | 0.00 | 94 | 1012.4 |
| 20260510091503 | 7 | 0 | 0.0 | 0.0 | 0.00 | 0.81 | 0.00 | 93 | 1012.3 |
| 20260510091402 | 7 | 0 | 0.0 | 0.0 | 0.00 | 0.81 | 0.00 | 93 | 1012.3 |
| 20260510091202 | 7 | 0 | 0.0 | 0.0 | 0.00 | 0.81 | 0.00 | 93 | 1012.0 |
| 20260510091103 | 7 | 0 | 0.0 | 0.0 | 0.00 | 0.81 | 0.00 | 93 | 1012.3 |
| 20260510090924 | 7 | 0 | 0.0 | 0.0 | 0.00 | 0.81 | 0.00 | 93 | 1012.0 |
| 20260510090723 | 7 | 0 | 0.0 | 0.0 | 0.00 | 0.81 | 0.00 | 93 | 1012.0 |
| 20260510090602 | 7 | 0 | 0.0 | 0.0 | 0.00 | 0.81 | 0.00 | 93 | 1011.9 |
| 20260510090402 | 7 | 0 | 0.0 | 0.0 | 0.00 | 0.81 | 0.00 | 93 | 1011.8 |
| 20260510090302 | 7 | 0 | 0.0 | 0.0 | 0.00 | 0.81 | 0.00 | 93 | 1011.8 |
| 20260510090003 | 7 | 0 | 0.0 | 0.0 | 0.00 | 0.81 | 0.00 | 93 | 1011.8 |
| 20260510085924 | 7 | 0 | 0.0 | 0.0 | 0.00 | 0.81 | 0.00 | 93 | 1011.8 |
| 20260510085803 | 7 | 0 | 0.0 | 0.0 | 0.00 | 0.81 | 0.00 | 93 | 1011.7 |
| 20260510085602 | 7 | 0 | 0.0 | 0.0 | 0.00 | 0.81 | 0.00 | 93 | 1011.8 |
| 20260510085503 | 7 | 0 | 0.0 | 0.0 | 0.00 | 0.81 | 0.00 | 92 | 1011.6 |
| 20260510085402 | 7 | 0 | 0.0 | 0.0 | 0.00 | 0.81 | 0.00 | 92 | 1011.5 |
| 20260510084903 | 7 | 0 | 0.0 | 0.0 | 0.00 | 0.81 | 0.00 | 91 | 1011.7 |
| 20260510084503 | 7 | 0 | 0.0 | 0.0 | 0.00 | 0.81 | 0.00 | 91 | 1011.7 |
| 20260510083903 | 8 | 0 | 0.0 | 0.0 | 0.00 | 0.81 | 0.00 | 91 | 1011.5 |
| 20260510083502 | 8 | 0 | 0.0 | 0.0 | 0.00 | 0.81 | 0.00 | 90 | 1011.3 |
| 20260510083403 | 8 | 0 | 0.0 | 0.0 | 0.00 | 0.81 | 0.00 | 90 | 1011.3 |
| 20260510083303 | 8 | 0 | 0.0 | 0.0 | 0.00 | 0.81 | 0.00 | 90 | 1011.4 |
| 20260510082903 | 8 | 0 | 0.0 | 0.0 | 0.00 | 0.81 | 0.00 | 89 | 1011.5 |
| 20260510082603 | 8 | 0 | 0.0 | 0.0 | 0.00 | 0.81 | 0.00 | 88 | 1011.6 |
| 20260510082423 | 8 | 0 | 0.0 | 0.0 | 0.00 | 0.81 | 0.00 | 88 | 1011.4 |
| 20260510082324 | 8 | 0 | 0.0 | 0.0 | 0.00 | 0.81 | 0.00 | 88 | 1011.6 |
| 20260510082203 | 8 | 0 | 0.0 | 0.0 | 0.00 | 0.81 | 0.00 | 88 | 1011.4 |
| 20260510082102 | 8 | 0 | 0.0 | 0.0 | 0.00 | 0.81 | 0.00 | 87 | 1011.4 |
| 20260510081703 | 8 | 0 | 0.0 | 0.0 | 0.00 | 0.81 | 0.00 | 86 | 1011.5 |
| 20260510081603 | 8 | 0 | 0.0 | 0.0 | 0.00 | 0.81 | 0.00 | 87 | 1011.3 |
| 20260510081402 | 8 | 0 | 0.0 | 0.0 | 0.00 | 0.81 | 0.00 | 86 | 1011.5 |
| 20260510081302 | 8 | 0 | 0.0 | 0.0 | 0.00 | 0.81 | 0.00 | 86 | 1011.3 |
| 20260510081103 | 8 | 0 | 0.0 | 0.0 | 0.00 | 0.81 | 0.00 | 86 | 1011.1 |
| 20260510081003 | 8 | 0 | 0.0 | 0.0 | 0.00 | 0.81 | 0.00 | 85 | 1011.3 |
| 20260510080824 | 8 | 0 | 0.0 | 0.0 | 0.00 | 0.81 | 0.00 | 84 | 1011.2 |
| 20260510080203 | 9 | 0 | 0.0 | 0.0 | 0.00 | 0.81 | 0.00 | 83 | 1011.2 |
| 20260510080003 | 9 | 101 | 0.0 | 1.6 | 0.00 | 0.81 | 0.00 | 82 | 1010.9 |
| 20260510075703 | 9 | 89 | 0.0 | 1.6 | 0.00 | 0.81 | 0.00 | 81 | 1010.8 |
| 20260510075603 | 9 | 89 | 0.0 | 1.6 | 0.00 | 0.81 | 0.00 | 81 | 1010.8 |
| 20260510075403 | 9 | 89 | 0.0 | 3.2 | 0.00 | 0.81 | 0.00 | 80 | 1011.0 |
| 20260510075306 | 9 | 88 | 0.0 | 3.2 | 0.00 | 0.81 | 0.00 | 80 | 1010.8 |
| 20260510075103 | 10 | 88 | 0.0 | 3.2 | 0.00 | 0.81 | 0.00 | 80 | 1010.8 |
| 20260510074903 | 10 | 86 | 0.0 | 3.2 | 0.00 | 0.81 | 0.00 | 80 | 1010.9 |
| 20260510074703 | 10 | 86 | 0.0 | 3.2 | 0.00 | 0.81 | 0.00 | 80 | 1010.8 |
| 20260510074503 | 10 | 81 | 1.6 | 3.2 | 0.00 | 0.81 | 0.00 | 79 | 1010.9 |
| 20260510074403 | 10 | 76 | 1.6 | 4.8 | 0.00 | 0.81 | 0.00 | 79 | 1010.7 |
| 20260510074103 | 10 | 64 | 1.6 | 6.4 | 0.00 | 0.81 | 0.00 | 79 | 1010.8 |
| 20260510074002 | 10 | 65 | 1.6 | 6.4 | 0.00 | 0.81 | 0.00 | 79 | 1010.7 |
| 20260510073703 | 10 | 61 | 1.6 | 6.4 | 0.00 | 0.81 | 0.00 | 78 | 1010.6 |
| 20260510073602 | 10 | 62 | 1.6 | 6.4 | 0.00 | 0.81 | 0.00 | 79 | 1010.4 |
| 20260510073102 | 10 | 53 | 1.6 | 11.3 | 0.00 | 0.81 | 0.00 | 79 | 1010.6 |
| 20260510072902 | 10 | 54 | 1.6 | 11.3 | 0.00 | 0.81 | 0.00 | 79 | 1010.5 |
| 20260510072424 | 10 | 46 | 1.6 | 11.3 | 0.00 | 0.81 | 0.00 | 79 | 1010.5 |
| 20260510072203 | 10 | 64 | 1.6 | 6.4 | 0.00 | 0.81 | 0.00 | 81 | 1010.5 |
| 20260510072102 | 10 | 59 | 1.6 | 6.4 | 0.00 | 0.81 | 0.00 | 81 | 1010.4 |
| 20260510072003 | 10 | 59 | 1.6 | 6.4 | 0.00 | 0.81 | 0.00 | 81 | 1010.5 |
| 20260510071903 | 10 | 59 | 1.6 | 6.4 | 0.00 | 0.81 | 0.00 | 81 | 1010.5 |
| 20260510071603 | 10 | 55 | 1.6 | 4.8 | 0.00 | 0.81 | 0.00 | 82 | 1010.3 |
| 20260510071503 | 10 | 56 | 1.6 | 6.4 | 0.00 | 0.81 | 0.00 | 82 | 1010.3 |
| 20260510071303 | 10 | 61 | 1.6 | 9.7 | 0.00 | 0.81 | 0.00 | 82 | 1010.4 |
| 20260510070903 | 10 | 48 | 1.6 | 9.7 | 0.00 | 0.81 | 0.00 | 82 | 1010.3 |
| 20260510070624 | 10 | 46 | 1.6 | 9.7 | 0.00 | 0.81 | 0.00 | 82 | 1010.4 |
| 20260510070302 | 10 | 42 | 1.6 | 6.4 | 0.00 | 0.81 | 0.00 | 83 | 1010.3 |
| 20260510070202 | 10 | 51 | 1.6 | 4.8 | 0.00 | 0.81 | 0.00 | 84 | 1010.3 |
| 20260510070003 | 10 | 62 | 1.6 | 4.8 | 0.00 | 0.81 | 0.00 | 83 | 1010.3 |
| 20260510065902 | 10 | 57 | 1.6 | 6.4 | 0.00 | 0.81 | 0.00 | 83 | 1010.2 |
| 20260510065802 | 10 | 54 | 3.2 | 6.4 | 0.00 | 0.81 | 0.00 | 83 | 1010.1 |
| 20260510065306 | 10 | 68 | 3.2 | 11.3 | 0.00 | 0.81 | 0.00 | 83 | 1010.1 |
| 20260510065202 | 10 | 68 | 3.2 | 11.3 | 0.00 | 0.81 | 0.00 | 83 | 1009.9 |
| 20260510064902 | 10 | 76 | 1.6 | 11.3 | 0.00 | 0.84 | 0.00 | 84 | 1009.9 |
| 20260510064803 | 10 | 85 | 1.6 | 11.3 | 0.00 | 0.84 | 0.00 | 85 | 1009.9 |
| 20260510064603 | 10 | 85 | 1.6 | 9.7 | 0.00 | 0.84 | 0.00 | 85 | 1010.0 |
| 20260510064303 | 10 | 87 | 1.6 | 4.8 | 0.00 | 0.84 | 0.00 | 86 | 1009.9 |
| 20260510064203 | 10 | 83 | 1.6 | 4.8 | 0.00 | 0.84 | 0.00 | 86 | 1009.9 |
| 20260510064103 | 10 | 87 | 1.6 | 6.4 | 0.00 | 0.84 | 0.00 | 86 | 1009.9 |
| 20260510064003 | 10 | 85 | 1.6 | 11.3 | 0.00 | 0.84 | 0.00 | 86 | 1010.0 |
| 20260510063924 | 10 | 86 | 1.6 | 11.3 | 0.00 | 0.84 | 0.00 | 86 | 1009.9 |
| 20260510063803 | 10 | 83 | 1.6 | 11.3 | 0.00 | 0.84 | 0.00 | 86 | 1009.9 |
| 20260510063603 | 10 | 81 | 3.2 | 11.3 | 0.00 | 0.84 | 0.00 | 87 | 1010.0 |
| 20260510063403 | 10 | 74 | 3.2 | 11.3 | 0.00 | 0.84 | 0.00 | 87 | 1010.0 |
| 20260510063224 | 10 | 65 | 3.2 | 11.3 | 0.00 | 0.84 | 0.00 | 88 | 1010.0 |
| 20260510062803 | 11 | 51 | 3.2 | 9.7 | 0.00 | 0.84 | 0.00 | 89 | 1010.0 |
| 20260510062703 | 11 | 50 | 3.2 | 9.7 | 0.00 | 0.84 | 0.00 | 89 | 1009.9 |
| 20260510062603 | 11 | 48 | 3.2 | 9.7 | 0.00 | 0.84 | 0.00 | 89 | 1009.9 |
| 20260510062503 | 11 | 50 | 3.2 | 9.7 | 0.00 | 0.84 | 0.00 | 89 | 1010.0 |
| 20260510062306 | 11 | 51 | 3.2 | 9.7 | 0.00 | 0.84 | 0.00 | 89 | 1009.9 |
| 20260510062103 | 11 | 51 | 3.2 | 9.7 | 0.00 | 0.84 | 0.00 | 89 | 1009.9 |
| 20260510062002 | 11 | 56 | 3.2 | 9.7 | 0.00 | 0.84 | 0.00 | 90 | 1009.9 |
| 20260510061903 | 11 | 56 | 3.2 | 9.7 | 0.00 | 0.84 | 0.00 | 90 | 1009.9 |
| 20260510061824 | 11 | 50 | 3.2 | 9.7 | 0.00 | 0.84 | 0.00 | 90 | 1009.8 |
| 20260510061702 | 11 | 47 | 3.2 | 9.7 | 0.00 | 0.84 | 0.00 | 90 | 1010.0 |
| 20260510061603 | 11 | 45 | 3.2 | 9.7 | 0.00 | 0.84 | 0.00 | 90 | 1010.0 |
| 20260510061423 | 11 | 43 | 3.2 | 9.7 | 0.00 | 0.84 | 0.00 | 90 | 1009.9 |
| 20260510061303 | 11 | 44 | 3.2 | 9.7 | 0.00 | 0.84 | 0.00 | 90 | 1010.0 |
| 20260510061002 | 11 | 47 | 3.2 | 9.7 | 0.00 | 0.86 | 0.00 | 90 | 1009.8 |
| 20260510060903 | 11 | 51 | 3.2 | 9.7 | 0.00 | 0.86 | 0.00 | 90 | 1009.7 |
| 20260510060803 | 11 | 62 | 3.2 | 6.4 | 0.00 | 0.86 | 0.00 | 91 | 1009.9 |
| 20260510060602 | 11 | 59 | 3.2 | 6.4 | 0.00 | 0.86 | 0.00 | 90 | 1009.8 |
| 20260510060323 | 11 | 69 | 3.2 | 4.8 | 0.00 | 0.86 | 0.00 | 91 | 1009.7 |
| 20260510055903 | 11 | 63 | 1.6 | 4.8 | 0.00 | 0.86 | 0.00 | 90 | 1009.9 |
| 20260510055802 | 11 | 64 | 1.6 | 4.8 | 0.00 | 0.86 | 0.00 | 90 | 1009.5 |
| 20260510055703 | 11 | 66 | 1.6 | 4.8 | 0.00 | 0.86 | 0.00 | 90 | 1009.8 |
| 20260510055603 | 11 | 72 | 1.6 | 4.8 | 0.00 | 0.89 | 0.00 | 90 | 1009.6 |
| 20260510055403 | 11 | 66 | 1.6 | 9.7 | 0.00 | 0.91 | 0.00 | 90 | 1009.7 |
| 20260510055124 | 11 | 51 | 1.6 | 9.7 | 0.00 | 0.99 | 0.00 | 90 | 1009.5 |
| 20260510054824 | 12 | 29 | 3.2 | 11.3 | 0.00 | 1.02 | 0.00 | 90 | 1009.4 |
| 20260510054603 | 12 | 28 | 4.8 | 11.3 | 0.00 | 1.04 | 0.00 | 90 | 1009.8 |
| 20260510054524 | 12 | 28 | 4.8 | 11.3 | 0.00 | 1.04 | 0.00 | 90 | 1009.6 |
| 20260510054423 | 12 | 27 | 4.8 | 11.3 | 0.00 | 1.04 | 0.00 | 90 | 1009.5 |
| 20260510054303 | 12 | 33 | 4.8 | 11.3 | 0.00 | 1.04 | 0.00 | 90 | 1009.7 |
| 20260510054202 | 12 | 32 | 4.8 | 11.3 | 0.00 | 1.04 | 0.00 | 90 | 1009.7 |
| 20260510054102 | 12 | 35 | 4.8 | 11.3 | 0.00 | 1.04 | 0.00 | 90 | 1009.7 |
| 20260510054003 | 12 | 44 | 4.8 | 11.3 | 0.00 | 1.04 | 0.00 | 90 | 1009.4 |
| 20260510053603 | 12 | 26 | 4.8 | 17.7 | 0.00 | 1.04 | 0.00 | 91 | 1009.6 |
| 20260510053503 | 12 | 25 | 4.8 | 17.7 | 0.00 | 1.04 | 0.00 | 91 | 1009.4 |
| 20260510053424 | 12 | 27 | 4.8 | 17.7 | 0.00 | 1.04 | 0.00 | 91 | 1009.6 |
| 20260510053003 | 12 | 12 | 3.2 | 17.7 | 0.00 | 1.04 | 0.00 | 92 | 1009.2 |
| 20260510052902 | 12 | 10 | 3.2 | 17.7 | 0.00 | 1.04 | 0.00 | 92 | 1009.5 |
| 20260510052803 | 12 | 6 | 3.2 | 17.7 | 0.00 | 1.04 | 0.00 | 92 | 1009.5 |
| 20260510052602 | 12 | 85 | 0.0 | 6.4 | 0.00 | 1.04 | 0.00 | 93 | 1009.5 |
| 20260510052423 | 12 | 111 | 0.0 | 6.4 | 0.00 | 1.04 | 0.00 | 93 | 1009.7 |
| 20260510052306 | 12 | 127 | 0.0 | 3.2 | 0.00 | 1.04 | 0.00 | 93 | 1009.6 |
| 20260510052124 | 12 | 107 | 1.6 | 4.8 | 0.00 | 1.04 | 0.00 | 94 | 1009.5 |
| 20260510051803 | 12 | 71 | 1.6 | 4.8 | 0.00 | 1.04 | 0.00 | 94 | 1009.5 |
| 20260510051702 | 12 | 73 | 1.6 | 4.8 | 0.00 | 1.04 | 0.00 | 94 | 1009.2 |
| 20260510051602 | 12 | 73 | 1.6 | 4.8 | 0.00 | 1.04 | 0.00 | 94 | 1009.5 |
| 20260510051403 | 12 | 37 | 1.6 | 9.7 | 0.00 | 1.07 | 0.00 | 94 | 1009.5 |
| 20260510051203 | 12 | 27 | 3.2 | 9.7 | 0.00 | 1.07 | 0.00 | 94 | 1009.3 |
| 20260510051123 | 12 | 22 | 3.2 | 9.7 | 0.00 | 1.07 | 0.00 | 94 | 1009.2 |
| 20260510050802 | 11 | 21 | 4.8 | 11.3 | 0.00 | 1.07 | 0.00 | 94 | 1008.9 |
| 20260510050503 | 11 | 35 | 4.8 | 11.3 | 0.00 | 1.07 | 0.00 | 94 | 1008.9 |
| 20260510050403 | 11 | 52 | 3.2 | 11.3 | 0.00 | 1.07 | 0.00 | 94 | 1009.3 |
| 20260510050303 | 11 | 58 | 3.2 | 11.3 | 0.00 | 1.07 | 0.00 | 94 | 1009.2 |
| 20260510050203 | 11 | 71 | 3.2 | 11.3 | 0.00 | 1.07 | 0.00 | 94 | 1009.3 |
| 20260510045703 | 11 | 135 | 1.6 | 9.7 | 0.00 | 1.07 | 0.00 | 94 | 1008.2 |
| 20260510045603 | 11 | 130 | 1.6 | 4.8 | 0.00 | 1.07 | 0.00 | 94 | 1008.1 |
| 20260510045503 | 11 | 127 | 1.6 | 4.8 | 0.00 | 1.09 | 0.00 | 94 | 1008.2 |
| 20260510045306 | 11 | 126 | 1.6 | 4.8 | 0.00 | 1.09 | 0.00 | 94 | 1007.9 |
| 20260510045203 | 11 | 126 | 1.6 | 4.8 | 0.00 | 1.09 | 0.00 | 94 | 1007.9 |
| 20260510044903 | 11 | 124 | 1.6 | 4.8 | 0.03 | 1.12 | 0.00 | 94 | 1007.9 |
| 20260510044802 | 12 | 127 | 1.6 | 6.4 | 0.03 | 1.12 | 0.00 | 94 | 1007.8 |
| 20260510044703 | 12 | 129 | 3.2 | 6.4 | 0.03 | 1.12 | 0.00 | 94 | 1007.9 |
| 20260510044602 | 12 | 129 | 1.6 | 6.4 | 0.03 | 1.12 | 0.00 | 94 | 1007.8 |
| 20260510044524 | 12 | 131 | 3.2 | 6.4 | 0.03 | 1.12 | 0.00 | 94 | 1007.8 |
| 20260510044103 | 11 | 129 | 1.6 | 6.4 | 0.03 | 1.12 | 0.00 | 94 | 1007.9 |
| 20260510043503 | 11 | 119 | 1.6 | 3.2 | 0.03 | 1.12 | 0.00 | 94 | 1007.8 |
| 20260510043403 | 11 | 118 | 1.6 | 3.2 | 0.03 | 1.12 | 0.00 | 93 | 1007.7 |
| 20260510043303 | 11 | 117 | 0.0 | 3.2 | 0.03 | 1.12 | 0.00 | 93 | 1007.8 |
| 20260510042903 | 11 | 115 | 0.0 | 3.2 | 0.03 | 1.14 | 0.00 | 93 | 1007.6 |
| 20260510042703 | 12 | 117 | 0.0 | 3.2 | 0.03 | 1.14 | 0.00 | 93 | 1007.3 |
| 20260510042403 | 12 | 121 | 0.0 | 3.2 | 0.05 | 1.17 | 0.00 | 92 | 1007.5 |
| 20260510042305 | 12 | 120 | 0.0 | 3.2 | 0.05 | 1.17 | 0.00 | 92 | 1007.6 |
| 20260510042203 | 12 | 121 | 0.0 | 3.2 | 0.05 | 1.17 | 0.00 | 92 | 1007.8 |
| 20260510042103 | 12 | 120 | 0.0 | 3.2 | 0.05 | 1.17 | 0.00 | 92 | 1007.6 |
| 20260510041902 | 12 | 117 | 0.0 | 3.2 | 0.05 | 1.17 | 0.00 | 92 | 1007.7 |
| 20260510041624 | 12 | 115 | 0.0 | 3.2 | 0.05 | 1.17 | 0.00 | 91 | 1007.5 |
| 20260510041103 | 12 | 125 | 0.0 | 4.8 | 0.05 | 1.19 | 0.00 | 90 | 1007.5 |
| 20260510040802 | 12 | 143 | 1.6 | 12.9 | 0.05 | 1.19 | 0.00 | 90 | 1007.5 |
| 20260510040703 | 12 | 147 | 1.6 | 12.9 | 0.05 | 1.19 | 0.00 | 89 | 1007.4 |
| 20260510040524 | 12 | 152 | 1.6 | 12.9 | 0.05 | 1.19 | 0.00 | 89 | 1007.5 |
| 20260510040403 | 12 | 149 | 3.2 | 12.9 | 0.05 | 1.19 | 0.00 | 89 | 1007.5 |
| 20260510040302 | 12 | 152 | 3.2 | 12.9 | 0.05 | 1.19 | 0.00 | 89 | 1007.4 |
| 20260510035803 | 12 | 156 | 3.2 | 12.9 | 0.05 | 1.19 | 1.19 | 90 | 1007.6 |
| 20260510035603 | 12 | 145 | 3.2 | 9.7 | 0.05 | 1.19 | 1.19 | 91 | 1007.6 |
| 20260510035503 | 12 | 144 | 3.2 | 9.7 | 0.05 | 1.19 | 1.19 | 91 | 1007.6 |
| 20260510035306 | 12 | 143 | 3.2 | 9.7 | 0.05 | 1.19 | 1.19 | 92 | 1007.8 |
| 20260510035103 | 12 | 145 | 3.2 | 9.7 | 0.05 | 1.19 | 1.19 | 91 | 1007.7 |
| 20260510034802 | 12 | 139 | 3.2 | 9.7 | 0.03 | 1.19 | 1.17 | 91 | 1008.0 |
| 20260510034702 | 12 | 140 | 3.2 | 9.7 | 0.03 | 1.19 | 1.17 | 91 | 1007.8 |
| 20260510034103 | 12 | 140 | 1.6 | 9.7 | 0.03 | 1.19 | 1.17 | 90 | 1007.7 |
| 20260510033803 | 12 | 143 | 1.6 | 9.7 | 0.03 | 1.19 | 1.17 | 90 | 1007.7 |
| 20260510033703 | 12 | 147 | 1.6 | 9.7 | 0.03 | 1.19 | 1.17 | 90 | 1007.8 |
| 20260510033603 | 12 | 148 | 3.2 | 9.7 | 0.03 | 1.19 | 1.17 | 89 | 1007.5 |
| 20260510033402 | 12 | 150 | 3.2 | 9.7 | 0.05 | 1.19 | 1.17 | 89 | 1008.0 |
| 20260510032903 | 12 | 148 | 3.2 | 9.7 | 0.10 | 1.19 | 1.17 | 89 | 1007.9 |
| 20260510032603 | 12 | 153 | 3.2 | 9.7 | 0.10 | 1.19 | 1.17 | 89 | 1007.8 |
| 20260510032403 | 12 | 154 | 3.2 | 6.4 | 0.08 | 1.17 | 1.14 | 89 | 1007.9 |
| 20260510032306 | 12 | 155 | 3.2 | 6.4 | 0.08 | 1.17 | 1.14 | 89 | 1007.7 |
| 20260510032103 | 12 | 155 | 3.2 | 6.4 | 0.08 | 1.19 | 1.14 | 89 | 1007.7 |
| 20260510032003 | 12 | 155 | 3.2 | 6.4 | 0.08 | 1.19 | 1.14 | 89 | 1007.6 |
| 20260510031703 | 12 | 146 | 3.2 | 6.4 | 0.08 | 1.19 | 1.14 | 91 | 1007.8 |
| 20260510031103 | 12 | 115 | 0.0 | 6.4 | 0.08 | 1.19 | 1.14 | 92 | 1007.6 |
| 20260510030803 | 12 | 110 | 0.0 | 3.2 | 0.08 | 1.22 | 1.14 | 92 | 1007.5 |
| 20260510030603 | 12 | 113 | 0.0 | 3.2 | 0.08 | 1.22 | 1.14 | 92 | 1007.5 |
| 20260510030403 | 12 | 114 | 1.6 | 3.2 | 0.08 | 1.22 | 1.14 | 92 | 1007.4 |
| 20260510030302 | 12 | 115 | 1.6 | 3.2 | 0.08 | 1.22 | 1.14 | 92 | 1007.4 |
| 20260510030203 | 12 | 115 | 1.6 | 3.2 | 0.10 | 1.22 | 1.14 | 92 | 1007.5 |
| 20260510025824 | 12 | 117 | 1.6 | 3.2 | 0.10 | 1.22 | 1.14 | 91 | 1007.3 |
| 20260510025703 | 12 | 118 | 1.6 | 3.2 | 0.10 | 1.22 | 1.14 | 91 | 1007.5 |
| 20260510025403 | 12 | 117 | 0.0 | 3.2 | 0.10 | 1.22 | 1.14 | 91 | 1007.5 |
| 20260510025305 | 12 | 116 | 0.0 | 3.2 | 0.10 | 1.22 | 1.14 | 90 | 1007.5 |
| 20260510025202 | 12 | 119 | 1.6 | 6.4 | 0.10 | 1.22 | 1.14 | 90 | 1007.4 |
| 20260510024803 | 12 | 181 | 3.2 | 17.7 | 0.10 | 1.22 | 1.14 | 90 | 1007.2 |
| 20260510024703 | 12 | 199 | 3.2 | 17.7 | 0.10 | 1.22 | 1.14 | 90 | 1007.3 |
| 20260510024603 | 12 | 201 | 3.2 | 17.7 | 0.10 | 1.22 | 1.14 | 89 | 1007.6 |
| 20260510024402 | 12 | 201 | 6.4 | 17.7 | 0.10 | 1.22 | 1.14 | 89 | 1007.7 |
| 20260510024324 | 12 | 202 | 6.4 | 17.7 | 0.10 | 1.22 | 1.14 | 89 | 1007.7 |
| 20260510024203 | 12 | 202 | 6.4 | 17.7 | 0.10 | 1.22 | 1.14 | 89 | 1007.9 |
| 20260510024103 | 12 | 197 | 6.4 | 17.7 | 0.10 | 1.22 | 1.14 | 90 | 1008.0 |
| 20260510023823 | 12 | 191 | 6.4 | 17.7 | 0.10 | 1.22 | 1.14 | 91 | 1008.0 |
| 20260510023603 | 12 | 183 | 6.4 | 17.7 | 0.10 | 1.22 | 1.14 | 92 | 1008.0 |
| 20260510023503 | 12 | 179 | 6.4 | 17.7 | 0.10 | 1.22 | 1.14 | 93 | 1008.0 |
| 20260510023203 | 12 | 163 | 4.8 | 14.5 | 0.08 | 1.19 | 1.12 | 94 | 1008.1 |
| 20260510023103 | 12 | 164 | 3.2 | 14.5 | 0.05 | 1.17 | 1.09 | 94 | 1008.2 |
| 20260510023003 | 12 | 162 | 3.2 | 14.5 | 0.03 | 1.14 | 1.07 | 95 | 1008.6 |
| 20260510022703 | 12 | 170 | 1.6 | 14.5 | 0.03 | 1.14 | 1.07 | 95 | 1008.2 |
| 20260510022602 | 12 | 167 | 1.6 | 14.5 | 0.03 | 1.14 | 1.07 | 95 | 1008.1 |
| 20260510022403 | 12 | 144 | 0.0 | 3.2 | 0.03 | 1.14 | 1.07 | 95 | 1007.9 |
| 20260510022002 | 12 | 118 | 0.0 | 1.6 | 0.03 | 1.14 | 1.07 | 95 | 1007.4 |
| 20260510021924 | 12 | 118 | 0.0 | 3.2 | 0.03 | 1.14 | 1.07 | 95 | 1007.4 |
| 20260510021503 | 12 | 119 | 1.6 | 4.8 | 0.03 | 1.14 | 1.07 | 95 | 1007.2 |
| 20260510021402 | 12 | 120 | 1.6 | 4.8 | 0.03 | 1.14 | 1.07 | 95 | 1007.2 |
| 20260510021303 | 12 | 120 | 1.6 | 4.8 | 0.03 | 1.14 | 1.07 | 95 | 1007.2 |
| 20260510021103 | 12 | 123 | 1.6 | 4.8 | 0.03 | 1.14 | 1.07 | 95 | 1007.2 |
| 20260510021003 | 12 | 123 | 1.6 | 4.8 | 0.03 | 1.14 | 1.07 | 95 | 1007.1 |
| 20260510020903 | 12 | 122 | 1.6 | 4.8 | 0.03 | 1.14 | 1.07 | 95 | 1007.2 |
| 20260510020603 | 12 | 123 | 1.6 | 4.8 | 0.03 | 1.14 | 1.07 | 95 | 1007.2 |
| 20260510020303 | 12 | 122 | 1.6 | 4.8 | 0.03 | 1.14 | 1.07 | 95 | 1007.3 |
| 20260510015902 | 12 | 115 | 0.0 | 3.2 | 0.00 | 1.12 | 1.04 | 95 | 1007.4 |
| 20260510015724 | 12 | 112 | 0.0 | 1.6 | 0.00 | 1.12 | 1.04 | 94 | 1007.4 |
| 20260510015603 | 12 | 123 | 0.0 | 3.2 | 0.00 | 1.12 | 1.04 | 94 | 1007.5 |
| 20260510015103 | 12 | 123 | 1.6 | 4.8 | 0.00 | 1.12 | 1.04 | 94 | 1007.1 |
| 20260510014923 | 12 | 122 | 1.6 | 4.8 | 0.00 | 1.12 | 1.04 | 94 | 1007.2 |
| 20260510014802 | 12 | 122 | 1.6 | 4.8 | 0.00 | 1.12 | 1.04 | 94 | 1007.2 |
| 20260510014624 | 12 | 120 | 1.6 | 4.8 | 0.00 | 1.12 | 1.04 | 94 | 1007.2 |
| 20260510014403 | 12 | 117 | 1.6 | 4.8 | 0.00 | 1.12 | 1.04 | 94 | 1007.1 |
| 20260510014203 | 12 | 117 | 1.6 | 4.8 | 0.00 | 1.12 | 1.04 | 94 | 1006.9 |
| 20260510014102 | 12 | 118 | 1.6 | 4.8 | 0.00 | 1.12 | 1.04 | 94 | 1007.1 |
| 20260510014024 | 12 | 119 | 1.6 | 4.8 | 0.00 | 1.12 | 1.04 | 94 | 1007.2 |
| 20260510013903 | 12 | 116 | 1.6 | 4.8 | 0.00 | 1.12 | 1.04 | 94 | 1007.5 |
| 20260510013803 | 12 | 115 | 1.6 | 4.8 | 0.00 | 1.12 | 1.04 | 94 | 1007.2 |
| 20260510013103 | 12 | 111 | 1.6 | 4.8 | 0.00 | 1.12 | 1.04 | 94 | 1007.2 |
| 20260510013003 | 12 | 111 | 1.6 | 4.8 | 0.00 | 1.12 | 1.04 | 94 | 1007.3 |
| 20260510012703 | 12 | 105 | 1.6 | 3.2 | 0.00 | 1.14 | 1.04 | 94 | 1007.2 |
| 20260510012403 | 12 | 102 | 0.0 | 3.2 | 0.00 | 1.14 | 1.04 | 94 | 1007.1 |
| 20260510012204 | 12 | 102 | 0.0 | 3.2 | 0.00 | 1.14 | 1.04 | 94 | 1007.2 |
| 20260510012103 | 12 | 102 | 0.0 | 3.2 | 0.00 | 1.14 | 1.04 | 94 | 1007.0 |
| 20260510011903 | 12 | 103 | 0.0 | 3.2 | 0.00 | 1.14 | 1.04 | 94 | 1006.9 |
| 20260510011802 | 12 | 103 | 0.0 | 3.2 | 0.00 | 1.14 | 1.04 | 94 | 1007.2 |
| 20260510011703 | 12 | 94 | 0.0 | 3.2 | 0.00 | 1.14 | 1.04 | 94 | 1007.2 |
| 20260510011602 | 12 | 97 | 0.0 | 3.2 | 0.00 | 1.14 | 1.04 | 94 | 1007.1 |
| 20260510011303 | 12 | 99 | 0.0 | 3.2 | 0.00 | 1.14 | 1.04 | 94 | 1007.1 |
| 20260510011103 | 12 | 104 | 0.0 | 3.2 | 0.00 | 1.14 | 1.04 | 94 | 1007.1 |
| 20260510011024 | 12 | 106 | 1.6 | 3.2 | 0.00 | 1.14 | 1.04 | 94 | 1006.9 |
| 20260510010903 | 12 | 106 | 1.6 | 3.2 | 0.00 | 1.14 | 1.04 | 93 | 1006.9 |
| 20260510010703 | 12 | 107 | 1.6 | 3.2 | 0.00 | 1.14 | 1.04 | 93 | 1006.9 |
| 20260510010603 | 12 | 107 | 1.6 | 3.2 | 0.00 | 1.14 | 1.04 | 93 | 1006.9 |
| 20260510010403 | 12 | 110 | 1.6 | 3.2 | 0.00 | 1.14 | 1.04 | 93 | 1007.0 |
| 20260510010003 | 12 | 111 | 1.6 | 3.2 | 0.00 | 1.14 | 1.04 | 93 | 1006.9 |
| 20260510005603 | 12 | 116 | 0.0 | 3.2 | 0.00 | 1.17 | 1.04 | 92 | 1006.9 |
| 20260510005403 | 12 | 117 | 0.0 | 3.2 | 0.00 | 1.17 | 1.04 | 92 | 1006.8 |
| 20260510005203 | 12 | 121 | 0.0 | 3.2 | 0.00 | 1.17 | 1.04 | 92 | 1006.9 |
| 20260510004824 | 12 | 115 | 0.0 | 1.6 | 0.00 | 1.17 | 1.04 | 91 | 1006.9 |
| 20260510004602 | 12 | 114 | 0.0 | 1.6 | 0.00 | 1.17 | 1.04 | 91 | 1006.7 |
| 20260510004403 | 12 | 145 | 0.0 | 6.4 | 0.00 | 1.19 | 1.04 | 91 | 1006.7 |
| 20260510004303 | 12 | 148 | 0.0 | 6.4 | 0.00 | 1.19 | 1.04 | 90 | 1006.9 |
| 20260510003403 | 13 | 147 | 1.6 | 6.4 | 0.00 | 1.22 | 1.04 | 90 | 1006.8 |
| 20260510003202 | 13 | 145 | 1.6 | 6.4 | 0.00 | 1.22 | 1.04 | 90 | 1006.8 |
| 20260510002724 | 13 | 143 | 1.6 | 4.8 | 0.05 | 1.24 | 1.04 | 90 | 1006.7 |
| 20260510002603 | 13 | 141 | 1.6 | 4.8 | 0.05 | 1.24 | 1.04 | 90 | 1006.8 |
| 20260510002524 | 13 | 146 | 1.6 | 4.8 | 0.08 | 1.24 | 1.04 | 90 | 1006.9 |
| 20260510002423 | 13 | 146 | 1.6 | 4.8 | 0.08 | 1.24 | 1.04 | 90 | 1006.7 |
| 20260510001903 | 13 | 155 | 3.2 | 9.7 | 0.15 | 1.24 | 1.04 | 90 | 1006.8 |
| 20260510001803 | 13 | 153 | 3.2 | 9.7 | 0.15 | 1.24 | 1.04 | 90 | 1006.7 |
| 20260510001602 | 13 | 155 | 3.2 | 9.7 | 0.18 | 1.24 | 1.04 | 90 | 1006.8 |
| 20260510001403 | 13 | 153 | 3.2 | 9.7 | 0.20 | 1.27 | 1.04 | 90 | 1006.5 |
| 20260510001203 | 13 | 148 | 3.2 | 9.7 | 0.23 | 1.27 | 1.04 | 91 | 1006.7 |
| 20260510000803 | 13 | 140 | 1.6 | 6.4 | 0.30 | 1.27 | 1.04 | 91 | 1006.6 |
| 20260510000703 | 13 | 138 | 1.6 | 6.4 | 0.33 | 1.27 | 1.04 | 91 | 1006.6 |
| 20260510000624 | 13 | 137 | 1.6 | 6.4 | 0.36 | 1.27 | 1.04 | 91 | 1006.6 |
| 20260510000403 | 13 | 149 | 1.6 | 11.3 | 0.38 | 1.27 | 1.04 | 91 | 1006.8 |
| 20260510000304 | 13 | 151 | 3.2 | 11.3 | 0.43 | 1.27 | 1.04 | 91 | 1006.5 |
| 20260510000204 | 13 | 157 | 3.2 | 11.3 | 0.48 | 1.27 | 1.04 | 91 | 1006.6 |
| 20260510000003 | 13 | 154 | 3.2 | 11.3 | 0.51 | 1.27 | 1.04 | 91 | 1006.5 |
| 20260509235224 | 13 | 155 | 3.2 | 9.7 | 0.66 | 1.30 | 1.04 | 92 | 1006.8 |
| 20260509235003 | 13 | 154 | 1.6 | 9.7 | 0.66 | 1.30 | 1.04 | 92 | 1006.6 |
| 20260509234803 | 13 | 153 | 1.6 | 6.4 | 0.66 | 1.30 | 1.04 | 92 | 1006.6 |
| 20260509234603 | 13 | 153 | 1.6 | 6.4 | 0.66 | 1.32 | 1.04 | 92 | 1006.6 |
| 20260509234524 | 13 | 162 | 1.6 | 6.4 | 0.66 | 1.32 | 1.04 | 92 | 1006.8 |
| 20260509234324 | 13 | 179 | 3.2 | 12.9 | 0.66 | 1.32 | 1.04 | 92 | 1006.8 |
| 20260509234103 | 12 | 203 | 3.2 | 12.9 | 0.66 | 1.32 | 1.04 | 93 | 1006.5 |
| 20260509233702 | 12 | 208 | 4.8 | 14.5 | 0.66 | 1.35 | 1.04 | 92 | 1006.7 |
| 20260509233524 | 12 | 208 | 4.8 | 14.5 | 0.66 | 1.35 | 1.04 | 92 | 1006.6 |
| 20260509233424 | 12 | 219 | 6.4 | 16.1 | 0.66 | 1.35 | 1.04 | 92 | 1006.8 |
| 20260509233303 | 12 | 218 | 6.4 | 16.1 | 0.66 | 1.35 | 1.04 | 92 | 1006.8 |
| 20260509233124 | 12 | 221 | 6.4 | 17.7 | 0.64 | 1.32 | 1.04 | 92 | 1006.8 |
| 20260509232902 | 12 | 229 | 6.4 | 17.7 | 0.64 | 1.35 | 1.02 | 93 | 1007.0 |
| 20260509232803 | 12 | 239 | 6.4 | 20.9 | 0.61 | 1.32 | 0.99 | 93 | 1007.2 |
| 20260509232603 | 12 | 248 | 8.0 | 25.7 | 0.61 | 1.32 | 0.99 | 92 | 1007.2 |
| 20260509232003 | 12 | 257 | 6.4 | 25.7 | 0.51 | 1.22 | 0.89 | 92 | 1007.3 |
| 20260509231903 | 12 | 255 | 6.4 | 25.7 | 0.51 | 1.22 | 0.89 | 92 | 1007.4 |
| 20260509231603 | 12 | 244 | 3.2 | 20.9 | 0.48 | 1.22 | 0.86 | 92 | 1007.1 |
| 20260509231503 | 12 | 18 | 3.2 | 16.1 | 0.46 | 1.19 | 0.84 | 92 | 1007.0 |
| 20260509231424 | 12 | 9 | 3.2 | 17.7 | 0.46 | 1.19 | 0.84 | 92 | 1006.8 |
| 20260509231103 | 12 | 352 | 6.4 | 25.7 | 0.43 | 1.17 | 0.81 | 91 | 1006.3 |
| 20260509230903 | 12 | 348 | 8.0 | 25.7 | 0.41 | 1.14 | 0.79 | 91 | 1006.3 |
| 20260509230603 | 12 | 335 | 9.7 | 25.7 | 0.30 | 1.04 | 0.69 | 90 | 1006.6 |
| 20260509230203 | 13 | 319 | 9.7 | 30.6 | 0.18 | 0.91 | 0.56 | 87 | 1006.6 |
| 20260509230124 | 13 | 317 | 11.3 | 30.6 | 0.18 | 0.91 | 0.56 | 87 | 1006.7 |
| 20260509225624 | 15 | 320 | 11.3 | 30.6 | 0.00 | 0.74 | 0.41 | 79 | 1006.7 |
| 20260509225424 | 16 | 316 | 9.7 | 30.6 | 0.00 | 0.74 | 0.38 | 74 | 1006.4 |
| 20260509225305 | 18 | 296 | 8.0 | 30.6 | 0.00 | 0.74 | 0.38 | 69 | 1006.3 |
| 20260509225103 | 19 | 296 | 8.0 | 25.7 | 0.00 | 0.76 | 0.38 | 63 | 1006.3 |
| 20260509225003 | 20 | 262 | 6.4 | 14.5 | 0.00 | 0.76 | 0.38 | 59 | 1006.0 |
| 20260509224903 | 20 | 232 | 6.4 | 17.7 | 0.00 | 0.76 | 0.38 | 58 | 1005.5 |
| 20260509224703 | 20 | 212 | 6.4 | 17.7 | 0.00 | 0.79 | 0.38 | 56 | 1004.6 |
| 20260509224503 | 20 | 197 | 6.4 | 17.7 | 0.00 | 0.79 | 0.38 | 57 | 1004.4 |
| 20260509224403 | 20 | 191 | 6.4 | 17.7 | 0.00 | 0.79 | 0.38 | 57 | 1004.1 |
| 20260509224303 | 20 | 192 | 6.4 | 17.7 | 0.00 | 0.81 | 0.38 | 56 | 1004.2 |
| 20260509224103 | 20 | 190 | 6.4 | 17.7 | 0.00 | 0.81 | 0.38 | 55 | 1004.1 |
| 20260509223702 | 20 | 177 | 4.8 | 14.5 | 0.00 | 0.86 | 0.38 | 55 | 1003.9 |
| 20260509223603 | 20 | 178 | 4.8 | 14.5 | 0.00 | 0.86 | 0.38 | 55 | 1004.0 |
| 20260509223424 | 20 | 175 | 4.8 | 14.5 | 0.00 | 0.86 | 0.38 | 55 | 1003.9 |
| 20260509223124 | 20 | 164 | 4.8 | 17.7 | 0.00 | 0.86 | 0.38 | 55 | 1003.8 |
| 20260509223003 | 20 | 160 | 4.8 | 17.7 | 0.00 | 0.89 | 0.38 | 55 | 1004.0 |
| 20260509222903 | 20 | 152 | 4.8 | 17.7 | 0.00 | 0.89 | 0.38 | 55 | 1003.9 |
| 20260509222524 | 20 | 156 | 6.4 | 17.7 | 0.00 | 0.89 | 0.38 | 55 | 1004.2 |
| 20260509222403 | 20 | 164 | 6.4 | 17.7 | 0.00 | 0.89 | 0.38 | 55 | 1004.3 |
| 20260509222323 | 20 | 170 | 6.4 | 17.7 | 0.00 | 0.89 | 0.38 | 55 | 1004.2 |
| 20260509222103 | 20 | 195 | 6.4 | 22.5 | 0.00 | 0.91 | 0.38 | 54 | 1004.2 |
| 20260509222003 | 20 | 196 | 6.4 | 22.5 | 0.00 | 0.91 | 0.38 | 54 | 1004.1 |
| 20260509221924 | 20 | 199 | 8.0 | 29.0 | 0.00 | 0.91 | 0.38 | 53 | 1004.2 |
| 20260509221703 | 20 | 198 | 8.0 | 29.0 | 0.00 | 0.91 | 0.38 | 54 | 1004.3 |
| 20260509221603 | 20 | 201 | 9.7 | 29.0 | 0.00 | 0.91 | 0.38 | 54 | 1004.3 |
| 20260509221303 | 20 | 198 | 9.7 | 29.0 | 0.00 | 0.94 | 0.38 | 53 | 1004.2 |
| 20260509221103 | 20 | 191 | 9.7 | 29.0 | 0.00 | 0.94 | 0.38 | 53 | 1004.3 |
| 20260509221003 | 20 | 187 | 9.7 | 29.0 | 0.00 | 0.97 | 0.38 | 53 | 1004.1 |
| 20260509220602 | 20 | 186 | 8.0 | 25.7 | 0.00 | 0.99 | 0.38 | 53 | 1004.1 |
| 20260509220503 | 20 | 180 | 8.0 | 25.7 | 0.00 | 0.99 | 0.38 | 53 | 1004.0 |
| 20260509220403 | 20 | 183 | 9.7 | 25.7 | 0.00 | 0.99 | 0.38 | 53 | 1004.2 |
| 20260509220302 | 21 | 179 | 9.7 | 25.7 | 0.00 | 0.99 | 0.38 | 53 | 1004.2 |
| 20260509215903 | 21 | 192 | 9.7 | 29.0 | 0.00 | 0.99 | 0.38 | 53 | 1004.0 |
| 20260509215602 | 21 | 194 | 9.7 | 29.0 | 0.00 | 0.99 | 0.38 | 52 | 1004.0 |
| 20260509215424 | 21 | 193 | 9.7 | 29.0 | 0.00 | 0.99 | 0.38 | 53 | 1004.1 |
| 20260509215324 | 21 | 194 | 11.3 | 30.6 | 0.00 | 0.99 | 0.38 | 52 | 1004.1 |
| 20260509215103 | 21 | 187 | 11.3 | 30.6 | 0.00 | 0.99 | 0.38 | 52 | 1003.9 |
| 20260509214824 | 21 | 177 | 11.3 | 30.6 | 0.00 | 0.99 | 0.38 | 53 | 1003.8 |
| 20260509214603 | 21 | 174 | 11.3 | 30.6 | 0.00 | 0.99 | 0.38 | 52 | 1003.9 |
| 20260509214403 | 21 | 187 | 9.7 | 24.1 | 0.00 | 0.99 | 0.38 | 52 | 1004.1 |
| 20260509214303 | 21 | 184 | 9.7 | 24.1 | 0.00 | 0.99 | 0.38 | 52 | 1004.0 |
| 20260509214203 | 21 | 186 | 9.7 | 22.5 | 0.00 | 0.99 | 0.38 | 52 | 1004.0 |
| 20260509214103 | 21 | 192 | 9.7 | 22.5 | 0.00 | 0.99 | 0.38 | 52 | 1003.9 |
| 20260509213603 | 21 | 197 | 8.0 | 24.1 | 0.00 | 0.99 | 0.38 | 52 | 1004.0 |
| 20260509213403 | 21 | 184 | 8.0 | 24.1 | 0.00 | 0.99 | 0.38 | 53 | 1003.9 |
| 20260509213224 | 21 | 181 | 8.0 | 24.1 | 0.00 | 0.99 | 0.38 | 52 | 1004.1 |
| 20260509213003 | 21 | 181 | 8.0 | 24.1 | 0.00 | 0.99 | 0.38 | 53 | 1003.9 |
| 20260509212902 | 21 | 180 | 8.0 | 24.1 | 0.00 | 0.99 | 0.38 | 53 | 1004.2 |
| 20260509212803 | 21 | 186 | 8.0 | 24.1 | 0.00 | 0.99 | 0.38 | 52 | 1003.8 |
| 20260509212603 | 21 | 179 | 8.0 | 30.6 | 0.00 | 0.99 | 0.38 | 53 | 1004.0 |
| 20260509212403 | 21 | 175 | 9.7 | 30.6 | 0.00 | 0.99 | 0.38 | 53 | 1004.0 |
| 20260509211903 | 21 | 173 | 9.7 | 30.6 | 0.00 | 0.99 | 0.38 | 53 | 1004.0 |
| 20260509211403 | 21 | 175 | 9.7 | 29.0 | 0.00 | 0.99 | 0.38 | 53 | 1003.7 |
| 20260509211303 | 21 | 183 | 9.7 | 24.1 | 0.00 | 0.99 | 0.38 | 52 | 1004.1 |
| 20260509211203 | 21 | 184 | 9.7 | 24.1 | 0.00 | 0.99 | 0.38 | 53 | 1004.0 |
| 20260509210903 | 21 | 189 | 9.7 | 24.1 | 0.00 | 0.99 | 0.38 | 52 | 1004.2 |
| 20260509210303 | 21 | 184 | 9.7 | 25.7 | 0.00 | 0.99 | 0.38 | 53 | 1004.2 |
| 20260509210003 | 21 | 181 | 9.7 | 25.7 | 0.00 | 0.99 | 0.38 | 52 | 1004.2 |
| 20260509205803 | 21 | 191 | 9.7 | 29.0 | 0.00 | 0.99 | 0.38 | 52 | 1004.3 |
| 20260509205703 | 21 | 212 | 9.7 | 29.0 | 0.00 | 0.99 | 0.38 | 54 | 1004.1 |
| 20260509205603 | 21 | 208 | 9.7 | 29.0 | 0.00 | 0.99 | 0.38 | 55 | 1004.2 |
| 20260509205306 | 21 | 200 | 9.7 | 29.0 | 0.00 | 0.99 | 0.38 | 55 | 1004.2 |
| 20260509205203 | 21 | 200 | 9.7 | 29.0 | 0.00 | 0.99 | 0.38 | 55 | 1004.2 |
| 20260509204903 | 21 | 197 | 9.7 | 27.4 | 0.00 | 0.99 | 0.38 | 55 | 1004.4 |
| 20260509204803 | 21 | 188 | 9.7 | 27.4 | 0.00 | 0.99 | 0.38 | 55 | 1004.6 |
| 20260509204603 | 21 | 179 | 9.7 | 27.4 | 0.00 | 0.99 | 0.38 | 54 | 1004.5 |
| 20260509204303 | 21 | 184 | 8.0 | 24.1 | 0.00 | 0.99 | 0.38 | 54 | 1004.6 |
| 20260509204203 | 21 | 186 | 9.7 | 24.1 | 0.00 | 0.99 | 0.38 | 56 | 1004.6 |
| 20260509204103 | 21 | 186 | 9.7 | 24.1 | 0.00 | 0.99 | 0.38 | 55 | 1004.5 |
| 20260509204003 | 21 | 184 | 9.7 | 24.1 | 0.00 | 0.99 | 0.38 | 55 | 1004.5 |
| 20260509203803 | 21 | 191 | 9.7 | 27.4 | 0.00 | 0.99 | 0.38 | 55 | 1004.6 |
| 20260509203703 | 21 | 186 | 9.7 | 27.4 | 0.00 | 0.99 | 0.38 | 54 | 1004.6 |
| 20260509203603 | 21 | 188 | 9.7 | 27.4 | 0.00 | 0.99 | 0.38 | 55 | 1004.7 |
| 20260509203503 | 21 | 189 | 9.7 | 27.4 | 0.00 | 0.99 | 0.38 | 54 | 1004.5 |
| 20260509203403 | 21 | 185 | 9.7 | 27.4 | 0.00 | 0.99 | 0.38 | 55 | 1004.5 |
| 20260509203103 | 20 | 172 | 9.7 | 27.4 | 0.00 | 0.99 | 0.38 | 56 | 1004.9 |
| 20260509203003 | 20 | 177 | 9.7 | 27.4 | 0.00 | 0.99 | 0.38 | 55 | 1005.0 |
| 20260509202903 | 21 | 176 | 9.7 | 29.0 | 0.00 | 0.99 | 0.38 | 55 | 1005.0 |
| 20260509202824 | 21 | 173 | 9.7 | 29.0 | 0.00 | 0.99 | 0.38 | 54 | 1004.9 |
| 20260509202403 | 21 | 172 | 9.7 | 29.0 | 0.00 | 0.99 | 0.38 | 54 | 1005.1 |
| 20260509202103 | 21 | 188 | 11.3 | 29.0 | 0.00 | 0.99 | 0.38 | 53 | 1004.9 |
| 20260509201903 | 21 | 182 | 9.7 | 29.0 | 0.00 | 0.99 | 0.38 | 53 | 1005.0 |
| 20260509201803 | 21 | 180 | 11.3 | 29.0 | 0.00 | 0.99 | 0.38 | 53 | 1004.7 |
| 20260509201603 | 21 | 181 | 9.7 | 27.4 | 0.00 | 0.99 | 0.38 | 53 | 1005.1 |
| 20260509201503 | 21 | 184 | 9.7 | 25.7 | 0.00 | 0.99 | 0.38 | 53 | 1004.9 |
| 20260509201203 | 21 | 191 | 9.7 | 25.7 | 0.00 | 0.99 | 0.38 | 51 | 1005.0 |
| 20260509201003 | 21 | 181 | 9.7 | 25.7 | 0.00 | 0.99 | 0.38 | 52 | 1005.1 |
| 20260509200903 | 21 | 184 | 9.7 | 25.7 | 0.00 | 0.99 | 0.38 | 51 | 1005.1 |
| 20260509200703 | 21 | 183 | 11.3 | 25.7 | 0.00 | 0.99 | 0.38 | 52 | 1005.0 |
| 20260509200603 | 21 | 182 | 11.3 | 25.7 | 0.00 | 0.99 | 0.38 | 52 | 1005.1 |
| 20260509200403 | 21 | 179 | 9.7 | 25.7 | 0.00 | 0.99 | 0.38 | 52 | 1005.4 |
| 20260509200203 | 21 | 174 | 9.7 | 25.7 | 0.00 | 0.99 | 0.38 | 52 | 1005.0 |
| 20260509195803 | 21 | 199 | 9.7 | 24.1 | 0.00 | 0.99 | 0.38 | 52 | 1005.3 |
| 20260509195703 | 21 | 201 | 9.7 | 25.7 | 0.00 | 0.99 | 0.38 | 52 | 1005.3 |
| 20260509195602 | 21 | 201 | 9.7 | 25.7 | 0.00 | 0.99 | 0.38 | 51 | 1005.1 |
| 20260509195524 | 21 | 202 | 9.7 | 25.7 | 0.00 | 0.99 | 0.38 | 52 | 1005.1 |
| 20260509195424 | 20 | 201 | 11.3 | 25.7 | 0.00 | 0.99 | 0.38 | 52 | 1005.1 |
| 20260509195306 | 20 | 203 | 11.3 | 25.7 | 0.00 | 0.99 | 0.38 | 51 | 1005.2 |
| 20260509195103 | 20 | 204 | 11.3 | 25.7 | 0.00 | 0.99 | 0.38 | 52 | 1005.2 |
| 20260509194903 | 20 | 195 | 9.7 | 25.7 | 0.00 | 0.99 | 0.38 | 53 | 1005.3 |
| 20260509194803 | 20 | 187 | 9.7 | 25.7 | 0.00 | 0.99 | 0.38 | 53 | 1005.3 |
| 20260509194703 | 20 | 191 | 9.7 | 25.7 | 0.00 | 0.99 | 0.38 | 54 | 1005.4 |
| 20260509194624 | 20 | 194 | 9.7 | 24.1 | 0.00 | 0.99 | 0.38 | 54 | 1005.3 |
| 20260509194503 | 21 | 196 | 9.7 | 24.1 | 0.00 | 0.99 | 0.38 | 54 | 1005.3 |
| 20260509194103 | 21 | 197 | 9.7 | 25.7 | 0.00 | 0.99 | 0.38 | 54 | 1005.6 |
| 20260509194003 | 21 | 193 | 9.7 | 25.7 | 0.00 | 0.99 | 0.38 | 54 | 1005.4 |
| 20260509193903 | 20 | 190 | 9.7 | 25.7 | 0.00 | 0.99 | 0.38 | 54 | 1005.5 |
| 20260509193724 | 20 | 192 | 9.7 | 25.7 | 0.00 | 0.99 | 0.38 | 54 | 1005.5 |
| 20260509193524 | 20 | 197 | 9.7 | 25.7 | 0.00 | 0.99 | 0.38 | 55 | 1005.6 |
| 20260509193402 | 20 | 197 | 9.7 | 25.7 | 0.00 | 0.99 | 0.38 | 55 | 1005.5 |
| 20260509193303 | 20 | 195 | 9.7 | 25.7 | 0.00 | 0.99 | 0.38 | 55 | 1005.7 |
| 20260509192903 | 20 | 208 | 9.7 | 25.7 | 0.00 | 0.99 | 0.38 | 55 | 1005.5 |
| 20260509192803 | 20 | 207 | 8.0 | 25.7 | 0.00 | 0.99 | 0.38 | 56 | 1005.7 |
| 20260509192603 | 20 | 201 | 8.0 | 25.7 | 0.00 | 0.99 | 0.38 | 55 | 1005.7 |
| 20260509192203 | 20 | 206 | 9.7 | 25.7 | 0.00 | 0.99 | 0.38 | 56 | 1005.9 |
| 20260509191903 | 20 | 203 | 9.7 | 25.7 | 0.00 | 0.99 | 0.38 | 56 | 1006.0 |
| 20260509191624 | 20 | 204 | 9.7 | 25.7 | 0.00 | 0.99 | 0.38 | 57 | 1005.9 |
| 20260509191403 | 20 | 195 | 8.0 | 25.7 | 0.00 | 0.99 | 0.38 | 58 | 1005.9 |
| 20260509191303 | 20 | 191 | 8.0 | 25.7 | 0.00 | 0.99 | 0.38 | 57 | 1006.0 |
| 20260509190803 | 20 | 181 | 8.0 | 25.7 | 0.00 | 0.99 | 0.38 | 58 | 1006.1 |
| 20260509190603 | 20 | 187 | 8.0 | 25.7 | 0.00 | 0.99 | 0.38 | 58 | 1006.1 |
| 20260509190503 | 20 | 184 | 8.0 | 25.7 | 0.00 | 0.99 | 0.38 | 58 | 1006.0 |
| 20260509190424 | 20 | 188 | 8.0 | 25.7 | 0.00 | 0.99 | 0.38 | 57 | 1006.1 |
| 20260509190003 | 20 | 207 | 9.7 | 24.1 | 0.00 | 0.99 | 0.38 | 57 | 1006.1 |
| 20260509185824 | 20 | 206 | 9.7 | 24.1 | 0.00 | 0.99 | 0.38 | 57 | 1006.2 |
| 20260509185524 | 19 | 209 | 9.7 | 24.1 | 0.00 | 0.99 | 0.38 | 59 | 1006.2 |
| 20260509185202 | 19 | 202 | 8.0 | 24.1 | 0.00 | 0.99 | 0.38 | 59 | 1006.3 |
| 20260509185103 | 19 | 197 | 8.0 | 22.5 | 0.00 | 0.99 | 0.38 | 58 | 1006.2 |
| 20260509185003 | 19 | 191 | 8.0 | 20.9 | 0.00 | 0.99 | 0.38 | 59 | 1006.3 |
| 20260509184803 | 19 | 187 | 6.4 | 17.7 | 0.00 | 0.99 | 0.38 | 58 | 1006.1 |
| 20260509184703 | 19 | 174 | 6.4 | 16.1 | 0.00 | 0.99 | 0.38 | 59 | 1006.3 |
| 20260509184603 | 19 | 171 | 6.4 | 16.1 | 0.00 | 0.99 | 0.38 | 59 | 1006.2 |
| 20260509184303 | 19 | 175 | 6.4 | 17.7 | 0.00 | 0.99 | 0.38 | 59 | 1006.2 |
| 20260509184203 | 19 | 186 | 8.0 | 17.7 | 0.00 | 0.99 | 0.38 | 59 | 1006.1 |
| 20260509184103 | 19 | 195 | 8.0 | 17.7 | 0.00 | 0.99 | 0.38 | 59 | 1006.1 |
| 20260509183803 | 19 | 209 | 8.0 | 25.7 | 0.00 | 0.99 | 0.38 | 59 | 1006.2 |
| 20260509183624 | 19 | 216 | 8.0 | 25.7 | 0.00 | 0.99 | 0.38 | 58 | 1006.1 |
| 20260509183524 | 19 | 219 | 8.0 | 25.7 | 0.00 | 0.99 | 0.38 | 58 | 1006.3 |
| 20260509183203 | 19 | 222 | 8.0 | 25.7 | 0.00 | 0.99 | 0.38 | 59 | 1006.1 |
| 20260509183103 | 19 | 215 | 6.4 | 25.7 | 0.00 | 0.99 | 0.38 | 58 | 1006.1 |
| 20260509182903 | 20 | 207 | 6.4 | 17.7 | 0.00 | 0.99 | 0.38 | 57 | 1006.2 |
| 20260509182803 | 20 | 207 | 6.4 | 22.5 | 0.00 | 0.99 | 0.38 | 57 | 1006.2 |
| 20260509182603 | 20 | 207 | 6.4 | 22.5 | 0.00 | 0.99 | 0.38 | 57 | 1006.2 |
| 20260509182306 | 20 | 198 | 8.0 | 27.4 | 0.00 | 0.99 | 0.38 | 56 | 1006.2 |
| 20260509182103 | 20 | 196 | 9.7 | 27.4 | 0.00 | 0.99 | 0.38 | 57 | 1006.2 |
| 20260509182003 | 20 | 202 | 9.7 | 27.4 | 0.00 | 0.99 | 0.38 | 56 | 1006.1 |
| 20260509181624 | 19 | 188 | 8.0 | 27.4 | 0.00 | 0.99 | 0.38 | 57 | 1006.1 |
| 20260509181503 | 19 | 184 | 8.0 | 27.4 | 0.00 | 0.99 | 0.38 | 58 | 1006.0 |
| 20260509181303 | 20 | 178 | 8.0 | 22.5 | 0.00 | 0.99 | 0.38 | 57 | 1006.2 |
| 20260509181203 | 20 | 180 | 6.4 | 22.5 | 0.00 | 0.99 | 0.38 | 59 | 1006.0 |
| 20260509181003 | 20 | 170 | 6.4 | 25.7 | 0.00 | 0.99 | 0.38 | 58 | 1005.9 |
| 20260509180903 | 20 | 164 | 8.0 | 25.7 | 0.00 | 0.99 | 0.38 | 59 | 1006.0 |
| 20260509180303 | 19 | 163 | 8.0 | 25.7 | 0.00 | 0.99 | 0.38 | 59 | 1006.1 |
| 20260509180203 | 19 | 161 | 8.0 | 25.7 | 0.00 | 0.99 | 0.38 | 59 | 1005.9 |
| 20260509175602 | 19 | 191 | 8.0 | 22.5 | 0.00 | 0.99 | 0.38 | 59 | 1006.2 |
| 20260509175424 | 18 | 198 | 8.0 | 22.5 | 0.00 | 0.99 | 0.38 | 61 | 1006.3 |
| 20260509175306 | 18 | 204 | 8.0 | 22.5 | 0.00 | 0.99 | 0.38 | 59 | 1006.4 |
| 20260509175203 | 18 | 205 | 8.0 | 17.7 | 0.00 | 0.99 | 0.38 | 60 | 1006.3 |
| 20260509175103 | 18 | 206 | 8.0 | 17.7 | 0.00 | 0.99 | 0.38 | 61 | 1006.3 |
| 20260509175003 | 18 | 196 | 8.0 | 17.7 | 0.00 | 0.99 | 0.38 | 60 | 1006.3 |
| 20260509174924 | 19 | 189 | 8.0 | 17.7 | 0.00 | 0.99 | 0.38 | 60 | 1006.4 |
| 20260509174803 | 19 | 180 | 6.4 | 16.1 | 0.00 | 0.99 | 0.38 | 59 | 1006.4 |
| 20260509174103 | 19 | 177 | 6.4 | 20.9 | 0.00 | 0.99 | 0.38 | 60 | 1006.2 |
| 20260509173803 | 19 | 174 | 6.4 | 20.9 | 0.00 | 0.99 | 0.38 | 60 | 1006.5 |
| 20260509173703 | 18 | 177 | 8.0 | 20.9 | 0.00 | 0.99 | 0.38 | 60 | 1006.4 |
| 20260509173603 | 18 | 180 | 8.0 | 20.9 | 0.00 | 0.99 | 0.38 | 60 | 1006.3 |
| 20260509173324 | 19 | 186 | 8.0 | 20.9 | 0.00 | 0.99 | 0.38 | 59 | 1006.5 |
| 20260509173203 | 18 | 176 | 6.4 | 17.7 | 0.00 | 0.99 | 0.38 | 60 | 1006.4 |
| 20260509173103 | 18 | 175 | 6.4 | 17.7 | 0.00 | 0.99 | 0.38 | 60 | 1006.5 |
| 20260509173003 | 19 | 175 | 6.4 | 17.7 | 0.00 | 0.99 | 0.38 | 60 | 1006.4 |
| 20260509172803 | 19 | 182 | 6.4 | 17.7 | 0.00 | 0.99 | 0.38 | 59 | 1006.3 |
| 20260509172703 | 19 | 183 | 6.4 | 17.7 | 0.00 | 0.99 | 0.38 | 60 | 1006.4 |
| 20260509172602 | 19 | 183 | 6.4 | 16.1 | 0.00 | 0.99 | 0.38 | 61 | 1006.4 |
| 20260509172306 | 18 | 173 | 6.4 | 17.7 | 0.00 | 0.99 | 0.38 | 61 | 1006.5 |
| 20260509172224 | 18 | 174 | 6.4 | 17.7 | 0.00 | 0.99 | 0.38 | 62 | 1006.3 |
| 20260509172103 | 18 | 178 | 8.0 | 20.9 | 0.00 | 0.99 | 0.38 | 61 | 1006.6 |
| 20260509172003 | 18 | 180 | 8.0 | 20.9 | 0.00 | 0.99 | 0.38 | 61 | 1006.5 |
| 20260509171903 | 18 | 181 | 8.0 | 20.9 | 0.00 | 0.99 | 0.38 | 61 | 1006.4 |
| 20260509171824 | 18 | 170 | 8.0 | 20.9 | 0.00 | 0.99 | 0.38 | 60 | 1006.5 |
| 20260509171726 | 18 | 164 | 8.0 | 20.9 | 0.00 | 0.99 | 0.38 | 60 | 1006.4 |
| 20260509171603 | 18 | 162 | 8.0 | 20.9 | 0.00 | 0.99 | 0.38 | 59 | 1006.5 |
| 20260509171524 | 18 | 167 | 6.4 | 20.9 | 0.00 | 0.99 | 0.38 | 60 | 1006.2 |
| 20260509171403 | 18 | 175 | 6.4 | 20.9 | 0.00 | 0.99 | 0.38 | 60 | 1006.3 |
| 20260509171303 | 18 | 175 | 6.4 | 20.9 | 0.00 | 0.99 | 0.38 | 60 | 1006.4 |
| 20260509171203 | 18 | 176 | 6.4 | 20.9 | 0.00 | 0.99 | 0.38 | 61 | 1006.3 |
| 20260509171103 | 18 | 175 | 6.4 | 20.9 | 0.00 | 0.99 | 0.38 | 61 | 1006.4 |
| 20260509171003 | 18 | 181 | 6.4 | 16.1 | 0.00 | 0.99 | 0.38 | 63 | 1006.3 |
| 20260509170924 | 18 | 184 | 6.4 | 16.1 | 0.00 | 0.99 | 0.38 | 63 | 1006.3 |
| 20260509170824 | 18 | 196 | 4.8 | 14.5 | 0.00 | 0.99 | 0.38 | 62 | 1006.3 |
| 20260509170403 | 18 | 211 | 6.4 | 17.7 | 0.00 | 0.99 | 0.38 | 63 | 1006.5 |
| 20260509170324 | 18 | 215 | 6.4 | 17.7 | 0.00 | 0.99 | 0.38 | 64 | 1006.3 |
| 20260509170203 | 18 | 212 | 6.4 | 17.7 | 0.00 | 0.99 | 0.38 | 63 | 1006.4 |
| 20260509165903 | 17 | 207 | 6.4 | 17.7 | 0.00 | 0.99 | 0.38 | 64 | 1006.2 |
| 20260509165803 | 17 | 202 | 6.4 | 17.7 | 0.00 | 0.99 | 0.38 | 65 | 1006.2 |
| 20260509165603 | 17 | 190 | 6.4 | 17.7 | 0.00 | 0.99 | 0.38 | 64 | 1006.3 |
| 20260509165403 | 18 | 192 | 6.4 | 12.9 | 0.00 | 0.99 | 0.38 | 65 | 1006.3 |
| 20260509165103 | 18 | 189 | 6.4 | 14.5 | 0.00 | 0.99 | 0.38 | 63 | 1006.4 |
| 20260509164924 | 18 | 200 | 6.4 | 14.5 | 0.00 | 0.99 | 0.38 | 63 | 1006.4 |
| 20260509164703 | 18 | 208 | 6.4 | 14.5 | 0.00 | 0.99 | 0.38 | 64 | 1006.3 |
| 20260509164602 | 18 | 204 | 6.4 | 14.5 | 0.00 | 0.99 | 0.38 | 64 | 1006.3 |
| 20260509164403 | 18 | 194 | 6.4 | 14.5 | 0.00 | 0.99 | 0.38 | 63 | 1006.4 |
| 20260509164303 | 17 | 193 | 4.8 | 14.5 | 0.00 | 0.99 | 0.38 | 65 | 1006.3 |
| 20260509164203 | 17 | 189 | 4.8 | 14.5 | 0.00 | 0.99 | 0.38 | 63 | 1006.2 |
| 20260509164103 | 17 | 189 | 4.8 | 14.5 | 0.00 | 0.99 | 0.38 | 63 | 1006.3 |
| 20260509163903 | 18 | 169 | 4.8 | 14.5 | 0.00 | 0.99 | 0.38 | 64 | 1006.5 |
| 20260509163803 | 18 | 152 | 4.8 | 14.5 | 0.00 | 0.99 | 0.38 | 64 | 1006.5 |
| 20260509163603 | 18 | 167 | 4.8 | 14.5 | 0.00 | 0.99 | 0.38 | 63 | 1006.7 |
| 20260509163503 | 18 | 170 | 4.8 | 14.5 | 0.00 | 0.99 | 0.38 | 64 | 1006.6 |
| 20260509163403 | 18 | 173 | 4.8 | 14.5 | 0.00 | 0.99 | 0.38 | 65 | 1006.5 |
| 20260509163124 | 18 | 177 | 4.8 | 14.5 | 0.00 | 0.99 | 0.38 | 65 | 1006.6 |
| 20260509162926 | 18 | 174 | 4.8 | 14.5 | 0.00 | 0.99 | 0.38 | 63 | 1006.5 |
| 20260509162824 | 18 | 184 | 4.8 | 11.3 | 0.00 | 0.99 | 0.38 | 64 | 1006.5 |
| 20260509162603 | 17 | 187 | 4.8 | 12.9 | 0.00 | 0.99 | 0.38 | 66 | 1006.7 |
| 20260509162403 | 17 | 175 | 4.8 | 12.9 | 0.00 | 0.99 | 0.38 | 66 | 1006.7 |
| 20260509162003 | 17 | 174 | 6.4 | 16.1 | 0.00 | 0.99 | 0.38 | 67 | 1006.9 |
| 20260509161803 | 17 | 177 | 6.4 | 16.1 | 0.00 | 0.99 | 0.38 | 64 | 1006.8 |
| 20260509161603 | 17 | 178 | 6.4 | 16.1 | 0.00 | 0.99 | 0.38 | 63 | 1006.9 |
| 20260509161503 | 17 | 179 | 6.4 | 16.1 | 0.00 | 0.99 | 0.38 | 64 | 1007.0 |
| 20260509161303 | 17 | 188 | 6.4 | 16.1 | 0.00 | 0.99 | 0.38 | 65 | 1007.0 |
| 20260509161103 | 17 | 190 | 6.4 | 14.5 | 0.00 | 0.99 | 0.38 | 66 | 1007.1 |
| 20260509160903 | 17 | 190 | 6.4 | 16.1 | 0.00 | 0.99 | 0.38 | 68 | 1007.0 |
| 20260509160803 | 17 | 190 | 6.4 | 16.1 | 0.00 | 0.99 | 0.38 | 67 | 1007.1 |
| 20260509160603 | 17 | 192 | 6.4 | 16.1 | 0.00 | 0.99 | 0.38 | 69 | 1007.1 |
| 20260509160503 | 17 | 197 | 6.4 | 16.1 | 0.00 | 0.99 | 0.38 | 68 | 1007.1 |
| 20260509160403 | 17 | 195 | 4.8 | 16.1 | 0.00 | 0.99 | 0.38 | 68 | 1006.9 |
| 20260509160324 | 17 | 201 | 4.8 | 16.1 | 0.00 | 0.99 | 0.38 | 67 | 1007.2 |
| 20260509155803 | 16 | 199 | 4.8 | 16.1 | 0.00 | 0.99 | 0.38 | 69 | 1006.9 |
| 20260509155503 | 16 | 190 | 4.8 | 16.1 | 0.00 | 0.99 | 0.38 | 72 | 1007.1 |
| 20260509155403 | 16 | 194 | 4.8 | 16.1 | 0.00 | 0.99 | 0.38 | 72 | 1007.1 |
| 20260509155103 | 16 | 173 | 4.8 | 16.1 | 0.00 | 0.99 | 0.38 | 72 | 1007.2 |
| 20260509154603 | 16 | 176 | 4.8 | 16.1 | 0.00 | 0.99 | 0.38 | 71 | 1007.1 |
| 20260509154503 | 16 | 182 | 6.4 | 17.7 | 0.00 | 0.99 | 0.38 | 72 | 1007.1 |
| 20260509154203 | 16 | 180 | 4.8 | 17.7 | 0.00 | 0.99 | 0.38 | 70 | 1007.1 |
| 20260509154103 | 16 | 181 | 4.8 | 17.7 | 0.00 | 0.99 | 0.38 | 71 | 1007.1 |
| 20260509153903 | 16 | 187 | 4.8 | 17.7 | 0.00 | 0.99 | 0.38 | 71 | 1007.0 |
| 20260509153603 | 16 | 200 | 4.8 | 17.7 | 0.00 | 0.99 | 0.38 | 72 | 1007.1 |
| 20260509153403 | 16 | 203 | 4.8 | 11.3 | 0.00 | 0.99 | 0.38 | 75 | 1007.2 |
| 20260509153303 | 16 | 206 | 4.8 | 11.3 | 0.00 | 0.99 | 0.38 | 75 | 1007.1 |
| 20260509153103 | 15 | 218 | 4.8 | 11.3 | 0.00 | 0.99 | 0.38 | 76 | 1007.1 |
| 20260509153003 | 15 | 216 | 4.8 | 11.3 | 0.00 | 0.99 | 0.38 | 76 | 1007.1 |
| 20260509152903 | 15 | 209 | 4.8 | 11.3 | 0.00 | 0.99 | 0.38 | 76 | 1007.1 |
| 20260509152703 | 15 | 196 | 3.2 | 11.3 | 0.00 | 0.99 | 0.38 | 76 | 1007.0 |
| 20260509152603 | 15 | 194 | 4.8 | 11.3 | 0.00 | 0.99 | 0.38 | 76 | 1007.1 |
| 20260509152503 | 15 | 191 | 3.2 | 11.3 | 0.00 | 0.99 | 0.38 | 76 | 1007.2 |
| 20260509152203 | 15 | 187 | 4.8 | 11.3 | 0.00 | 0.99 | 0.38 | 75 | 1007.0 |
| 20260509151924 | 15 | 191 | 4.8 | 11.3 | 0.00 | 0.99 | 0.38 | 75 | 1007.0 |
| 20260509151603 | 15 | 201 | 4.8 | 11.3 | 0.00 | 0.99 | 0.38 | 76 | 1007.0 |
| 20260509151524 | 15 | 199 | 4.8 | 11.3 | 0.00 | 0.99 | 0.38 | 76 | 1007.0 |
| 20260509151403 | 15 | 204 | 3.2 | 9.7 | 0.00 | 0.99 | 0.38 | 77 | 1007.0 |
| 20260509151203 | 15 | 196 | 3.2 | 9.7 | 0.00 | 0.99 | 0.38 | 78 | 1007.0 |
| 20260509151003 | 15 | 182 | 3.2 | 9.7 | 0.00 | 0.99 | 0.38 | 78 | 1007.3 |
| 20260509150803 | 15 | 170 | 3.2 | 9.7 | 0.00 | 0.99 | 0.38 | 78 | 1007.0 |
| 20260509150703 | 15 | 164 | 3.2 | 9.7 | 0.00 | 0.99 | 0.38 | 78 | 1007.1 |
| 20260509150603 | 15 | 163 | 3.2 | 6.4 | 0.00 | 0.99 | 0.38 | 78 | 1007.2 |
| 20260509150503 | 15 | 165 | 3.2 | 6.4 | 0.00 | 0.99 | 0.38 | 79 | 1007.1 |
| 20260509150424 | 15 | 168 | 3.2 | 6.4 | 0.00 | 0.99 | 0.38 | 79 | 1007.1 |
| 20260509150103 | 15 | 175 | 3.2 | 9.7 | 0.00 | 0.99 | 0.38 | 80 | 1007.1 |
| 20260509145903 | 14 | 179 | 3.2 | 11.3 | 0.00 | 0.99 | 0.38 | 81 | 1006.8 |
| 20260509145703 | 14 | 180 | 4.8 | 11.3 | 0.00 | 0.99 | 0.38 | 81 | 1007.0 |
| 20260509145524 | 14 | 181 | 4.8 | 11.3 | 0.00 | 0.99 | 0.38 | 80 | 1007.1 |
| 20260509145403 | 14 | 189 | 4.8 | 11.3 | 0.00 | 0.99 | 0.38 | 80 | 1007.1 |
| 20260509145324 | 14 | 186 | 3.2 | 11.3 | 0.00 | 0.99 | 0.38 | 80 | 1007.1 |
| 20260509145124 | 14 | 182 | 3.2 | 11.3 | 0.00 | 0.99 | 0.38 | 81 | 1007.0 |
| 20260509144903 | 14 | 190 | 3.2 | 11.3 | 0.00 | 0.99 | 0.38 | 81 | 1007.2 |
| 20260509144803 | 14 | 177 | 3.2 | 11.3 | 0.00 | 0.99 | 0.38 | 82 | 1007.2 |
| 20260509144603 | 14 | 188 | 3.2 | 11.3 | 0.00 | 0.99 | 0.38 | 83 | 1007.2 |
| 20260509144424 | 14 | 183 | 3.2 | 11.3 | 0.00 | 0.99 | 0.38 | 84 | 1007.1 |
| 20260509144103 | 13 | 197 | 4.8 | 11.3 | 0.00 | 0.99 | 0.38 | 84 | 1007.1 |
| 20260509144003 | 13 | 200 | 4.8 | 11.3 | 0.00 | 0.99 | 0.38 | 85 | 1007.1 |
| 20260509143903 | 13 | 195 | 4.8 | 11.3 | 0.00 | 0.99 | 0.38 | 85 | 1007.1 |
| 20260509143603 | 13 | 189 | 3.2 | 11.3 | 0.00 | 0.99 | 0.38 | 85 | 1007.1 |
| 20260509143103 | 13 | 159 | 1.6 | 11.3 | 0.00 | 0.99 | 0.38 | 86 | 1007.1 |
| 20260509143024 | 13 | 153 | 1.6 | 11.3 | 0.00 | 0.99 | 0.38 | 86 | 1007.1 |
| 20260509142903 | 13 | 154 | 1.6 | 11.3 | 0.00 | 0.99 | 0.38 | 87 | 1007.0 |
| 20260509142803 | 13 | 160 | 1.6 | 11.3 | 0.00 | 0.99 | 0.38 | 87 | 1007.1 |
| 20260509142624 | 13 | 163 | 1.6 | 11.3 | 0.00 | 0.99 | 0.38 | 87 | 1007.1 |
| 20260509142306 | 13 | 185 | 3.2 | 11.3 | 0.00 | 0.99 | 0.38 | 88 | 1007.2 |
| 20260509142103 | 13 | 201 | 3.2 | 11.3 | 0.00 | 0.99 | 0.38 | 88 | 1006.9 |
| 20260509141924 | 13 | 205 | 3.2 | 11.3 | 0.00 | 0.99 | 0.38 | 88 | 1007.2 |
| 20260509141603 | 13 | 219 | 4.8 | 14.5 | 0.00 | 0.99 | 0.38 | 89 | 1007.1 |
| 20260509141303 | 13 | 206 | 4.8 | 14.5 | 0.00 | 0.99 | 0.38 | 88 | 1007.2 |
| 20260509141103 | 13 | 197 | 3.2 | 14.5 | 0.00 | 0.99 | 0.38 | 89 | 1007.3 |
| 20260509140903 | 13 | 192 | 3.2 | 14.5 | 0.00 | 0.99 | 0.38 | 90 | 1007.2 |
| 20260509140803 | 12 | 189 | 3.2 | 14.5 | 0.00 | 0.99 | 0.38 | 90 | 1007.1 |
| 20260509140703 | 13 | 181 | 3.2 | 14.5 | 0.00 | 0.99 | 0.38 | 90 | 1007.2 |
| 20260509140603 | 13 | 160 | 1.6 | 9.7 | 0.00 | 0.99 | 0.38 | 90 | 1007.2 |
| 20260509140424 | 13 | 150 | 1.6 | 6.4 | 0.00 | 0.99 | 0.38 | 91 | 1007.1 |
| 20260509140303 | 13 | 143 | 1.6 | 4.8 | 0.00 | 0.99 | 0.38 | 91 | 1007.2 |
| 20260509140103 | 13 | 148 | 1.6 | 4.8 | 0.00 | 0.99 | 0.38 | 91 | 1007.0 |
| 20260509135803 | 13 | 152 | 1.6 | 6.4 | 0.00 | 0.99 | 0.38 | 91 | 1007.1 |
| 20260509135607 | 12 | 153 | 1.6 | 6.4 | 0.00 | 0.99 | 0.38 | 92 | 1007.2 |
| 20260509135403 | 12 | 153 | 1.6 | 6.4 | 0.00 | 0.99 | 0.38 | 92 | 1007.2 |
| 20260509135324 | 12 | 149 | 1.6 | 6.4 | 0.00 | 0.99 | 0.38 | 92 | 1007.2 |
| 20260509135103 | 12 | 150 | 1.6 | 6.4 | 0.00 | 0.99 | 0.38 | 92 | 1007.0 |
| 20260509135003 | 12 | 151 | 1.6 | 6.4 | 0.00 | 0.99 | 0.38 | 92 | 1007.3 |
| 20260509134924 | 12 | 150 | 1.6 | 6.4 | 0.00 | 0.99 | 0.38 | 92 | 1007.2 |
| 20260509134703 | 12 | 157 | 3.2 | 6.4 | 0.00 | 0.99 | 0.38 | 92 | 1007.2 |
| 20260509134503 | 12 | 154 | 3.2 | 17.7 | 0.00 | 0.99 | 0.38 | 92 | 1007.1 |
| 20260509134403 | 12 | 155 | 3.2 | 17.7 | 0.00 | 0.99 | 0.38 | 93 | 1007.0 |
| 20260509134224 | 12 | 155 | 3.2 | 17.7 | 0.00 | 0.99 | 0.38 | 93 | 1007.2 |
| 20260509134103 | 12 | 155 | 3.2 | 17.7 | 0.00 | 0.99 | 0.38 | 93 | 1006.9 |
| 20260509134003 | 12 | 156 | 1.6 | 17.7 | 0.00 | 0.99 | 0.38 | 93 | 1007.2 |
| 20260509133903 | 12 | 156 | 3.2 | 17.7 | 0.00 | 0.99 | 0.38 | 93 | 1007.2 |
| 20260509133803 | 12 | 155 | 3.2 | 17.7 | 0.00 | 0.99 | 0.38 | 93 | 1007.2 |
| 20260509133603 | 12 | 152 | 1.6 | 4.8 | 0.00 | 0.99 | 0.38 | 94 | 1007.3 |
| 20260509133303 | 12 | 148 | 1.6 | 6.4 | 0.00 | 0.99 | 0.38 | 94 | 1007.3 |
| 20260509133103 | 12 | 148 | 1.6 | 6.4 | 0.00 | 0.99 | 0.38 | 95 | 1007.0 |
| 20260509133003 | 12 | 147 | 1.6 | 6.4 | 0.00 | 0.99 | 0.38 | 94 | 1007.2 |
| 20260509132903 | 12 | 153 | 1.6 | 6.4 | 0.00 | 0.99 | 0.38 | 94 | 1007.3 |
| 20260509132724 | 12 | 145 | 1.6 | 11.3 | 0.00 | 0.99 | 0.38 | 95 | 1007.3 |
| 20260509132403 | 12 | 149 | 3.2 | 11.3 | 0.00 | 0.99 | 0.38 | 95 | 1007.3 |
| 20260509132103 | 12 | 152 | 3.2 | 11.3 | 0.00 | 0.99 | 0.38 | 95 | 1007.4 |
| 20260509131903 | 12 | 147 | 1.6 | 11.3 | 0.00 | 0.99 | 0.38 | 95 | 1007.3 |
| 20260509131803 | 12 | 148 | 1.6 | 6.4 | 0.00 | 0.99 | 0.38 | 95 | 1007.2 |
| 20260509131603 | 12 | 149 | 1.6 | 6.4 | 0.00 | 0.99 | 0.38 | 95 | 1007.3 |
| 20260509131503 | 12 | 148 | 1.6 | 6.4 | 0.00 | 0.99 | 0.38 | 95 | 1007.1 |
| 20260509131303 | 12 | 152 | 1.6 | 6.4 | 0.00 | 0.99 | 0.38 | 95 | 1007.1 |
| 20260509131203 | 12 | 153 | 3.2 | 6.4 | 0.00 | 0.99 | 0.38 | 95 | 1007.1 |
| 20260509131103 | 12 | 151 | 1.6 | 6.4 | 0.00 | 0.99 | 0.38 | 95 | 1007.3 |
| 20260509131024 | 12 | 151 | 1.6 | 6.4 | 0.00 | 0.99 | 0.38 | 95 | 1007.2 |
| 20260509130703 | 12 | 155 | 1.6 | 6.4 | 0.00 | 0.99 | 0.38 | 95 | 1007.2 |
| 20260509130603 | 12 | 157 | 1.6 | 6.4 | 0.00 | 0.99 | 0.38 | 96 | 1006.9 |
| 20260509130503 | 12 | 159 | 1.6 | 6.4 | 0.00 | 0.99 | 0.38 | 96 | 1007.1 |
| 20260509125803 | 12 | 138 | 1.6 | 6.4 | 0.00 | 0.99 | 0.38 | 96 | 1007.3 |
| 20260509125703 | 12 | 136 | 1.6 | 6.4 | 0.00 | 0.99 | 0.38 | 96 | 1007.3 |
| 20260509125424 | 12 | 139 | 1.6 | 6.4 | 0.00 | 0.99 | 0.38 | 96 | 1007.1 |
| 20260509125203 | 12 | 138 | 1.6 | 6.4 | 0.00 | 0.99 | 0.38 | 96 | 1007.2 |
| 20260509125103 | 12 | 143 | 3.2 | 9.7 | 0.00 | 0.99 | 0.38 | 96 | 1007.2 |
| 20260509124903 | 12 | 147 | 1.6 | 9.7 | 0.00 | 0.99 | 0.38 | 96 | 1007.2 |
| 20260509124603 | 12 | 144 | 3.2 | 9.7 | 0.00 | 1.02 | 0.38 | 97 | 1007.2 |
| 20260509124303 | 12 | 136 | 3.2 | 9.7 | 0.00 | 1.04 | 0.38 | 97 | 1007.3 |
| 20260509124103 | 12 | 137 | 3.2 | 6.4 | 0.00 | 1.04 | 0.38 | 97 | 1007.3 |
| 20260509124003 | 12 | 135 | 3.2 | 6.4 | 0.00 | 1.04 | 0.38 | 97 | 1007.4 |
| 20260509123803 | 11 | 137 | 3.2 | 6.4 | 0.00 | 1.04 | 0.38 | 97 | 1007.4 |
| 20260509123603 | 11 | 135 | 1.6 | 6.4 | 0.00 | 1.04 | 0.38 | 97 | 1007.5 |
| 20260509123124 | 11 | 131 | 1.6 | 4.8 | 0.00 | 1.04 | 0.38 | 97 | 1007.3 |
| 20260509122903 | 11 | 138 | 1.6 | 4.8 | 0.00 | 1.04 | 0.38 | 97 | 1007.5 |
| 20260509122824 | 11 | 138 | 1.6 | 4.8 | 0.00 | 1.04 | 0.38 | 97 | 1007.6 |
| 20260509122703 | 11 | 135 | 1.6 | 4.8 | 0.00 | 1.04 | 0.38 | 97 | 1007.7 |
| 20260509122403 | 11 | 145 | 1.6 | 6.4 | 0.00 | 1.04 | 0.38 | 97 | 1007.6 |
| 20260509122103 | 11 | 145 | 1.6 | 6.4 | 0.00 | 1.04 | 0.38 | 97 | 1007.6 |
| 20260509122003 | 11 | 141 | 1.6 | 6.4 | 0.00 | 1.04 | 0.38 | 97 | 1007.6 |
| 20260509121924 | 11 | 142 | 1.6 | 6.4 | 0.00 | 1.04 | 0.38 | 97 | 1007.6 |
| 20260509121824 | 11 | 141 | 1.6 | 6.4 | 0.00 | 1.04 | 0.38 | 97 | 1007.5 |
| 20260509121603 | 11 | 139 | 1.6 | 6.4 | 0.00 | 1.04 | 0.38 | 97 | 1007.7 |
| 20260509121203 | 11 | 129 | 1.6 | 4.8 | 0.00 | 1.04 | 0.38 | 97 | 1007.5 |
| 20260509121024 | 11 | 128 | 1.6 | 4.8 | 0.00 | 1.04 | 0.38 | 97 | 1007.6 |
| 20260509120924 | 11 | 131 | 1.6 | 4.8 | 0.00 | 1.04 | 0.38 | 97 | 1007.4 |
| 20260509120803 | 11 | 133 | 1.6 | 4.8 | 0.00 | 1.04 | 0.38 | 97 | 1007.3 |
| 20260509120703 | 11 | 133 | 1.6 | 4.8 | 0.00 | 1.04 | 0.38 | 97 | 1007.6 |
| 20260509120603 | 11 | 132 | 1.6 | 4.8 | 0.00 | 1.04 | 0.38 | 97 | 1007.5 |
| 20260509120403 | 11 | 131 | 1.6 | 4.8 | 0.00 | 1.04 | 0.38 | 97 | 1007.5 |
| 20260509120303 | 11 | 131 | 1.6 | 4.8 | 0.00 | 1.04 | 0.38 | 97 | 1007.5 |
| 20260509115924 | 11 | 132 | 1.6 | 4.8 | 0.00 | 1.04 | 0.38 | 97 | 1007.4 |
| 20260509115824 | 11 | 129 | 1.6 | 6.4 | 0.00 | 1.04 | 0.38 | 97 | 1007.3 |
| 20260509115703 | 11 | 129 | 1.6 | 6.4 | 0.00 | 1.04 | 0.38 | 97 | 1007.4 |
| 20260509115503 | 11 | 129 | 1.6 | 6.4 | 0.00 | 1.04 | 0.38 | 97 | 1007.5 |
| 20260509115103 | 11 | 136 | 1.6 | 6.4 | 0.00 | 1.04 | 0.38 | 97 | 1007.6 |
| 20260509115024 | 11 | 137 | 1.6 | 6.4 | 0.00 | 1.04 | 0.38 | 97 | 1007.6 |
| 20260509114824 | 11 | 142 | 1.6 | 4.8 | 0.00 | 1.04 | 0.38 | 97 | 1007.5 |
| 20260509114303 | 11 | 138 | 1.6 | 4.8 | 0.00 | 1.04 | 0.38 | 97 | 1007.7 |
| 20260509114203 | 11 | 135 | 1.6 | 4.8 | 0.00 | 1.04 | 0.38 | 97 | 1007.5 |
| 20260509113903 | 11 | 129 | 1.6 | 4.8 | 0.00 | 1.04 | 0.38 | 97 | 1007.6 |
| 20260509113803 | 11 | 127 | 1.6 | 4.8 | 0.00 | 1.04 | 0.38 | 97 | 1007.5 |
| 20260509113703 | 11 | 122 | 1.6 | 4.8 | 0.00 | 1.04 | 0.38 | 97 | 1007.7 |
| 20260509113603 | 11 | 124 | 1.6 | 4.8 | 0.00 | 1.04 | 0.38 | 97 | 1007.5 |
| 20260509113403 | 11 | 127 | 1.6 | 4.8 | 0.00 | 1.04 | 0.38 | 98 | 1007.5 |
| 20260509113303 | 11 | 124 | 1.6 | 4.8 | 0.00 | 1.04 | 0.38 | 98 | 1007.6 |
| 20260509113203 | 11 | 124 | 1.6 | 4.8 | 0.00 | 1.04 | 0.38 | 98 | 1007.6 |
| 20260509113103 | 11 | 122 | 1.6 | 4.8 | 0.00 | 1.04 | 0.38 | 97 | 1007.6 |
| 20260509113003 | 11 | 124 | 1.6 | 4.8 | 0.00 | 1.04 | 0.38 | 98 | 1007.4 |
| 20260509112903 | 11 | 127 | 1.6 | 4.8 | 0.00 | 1.04 | 0.38 | 98 | 1007.4 |
| 20260509112803 | 11 | 127 | 1.6 | 4.8 | 0.00 | 1.04 | 0.38 | 98 | 1007.5 |
| 20260509112603 | 11 | 131 | 1.6 | 4.8 | 0.00 | 1.04 | 0.38 | 98 | 1007.3 |
| 20260509112503 | 11 | 134 | 1.6 | 4.8 | 0.00 | 1.04 | 0.38 | 98 | 1007.6 |
| 20260509112403 | 11 | 135 | 1.6 | 4.8 | 0.00 | 1.04 | 0.38 | 98 | 1007.5 |
| 20260509112103 | 11 | 134 | 1.6 | 6.4 | 0.00 | 1.04 | 0.38 | 98 | 1007.5 |
| 20260509111803 | 11 | 130 | 1.6 | 6.4 | 0.00 | 1.04 | 0.38 | 98 | 1007.5 |
| 20260509111703 | 11 | 129 | 1.6 | 6.4 | 0.00 | 1.04 | 0.38 | 98 | 1007.4 |
| 20260509111303 | 11 | 128 | 1.6 | 4.8 | 0.00 | 1.04 | 0.38 | 98 | 1007.3 |
| 20260509111224 | 11 | 127 | 1.6 | 4.8 | 0.00 | 1.04 | 0.38 | 97 | 1007.5 |
| 20260509111003 | 10 | 128 | 0.0 | 4.8 | 0.00 | 1.04 | 0.38 | 98 | 1007.6 |
| 20260509110924 | 10 | 129 | 0.0 | 4.8 | 0.00 | 1.04 | 0.38 | 98 | 1007.3 |
| 20260509110603 | 10 | 134 | 0.0 | 4.8 | 0.00 | 1.04 | 0.38 | 98 | 1007.3 |
| 20260509110403 | 10 | 134 | 0.0 | 4.8 | 0.00 | 1.04 | 0.38 | 98 | 1007.2 |
| 20260509110303 | 10 | 124 | 0.0 | 1.6 | 0.00 | 1.04 | 0.38 | 98 | 1007.3 |
| 20260509110203 | 10 | 134 | 0.0 | 4.8 | 0.00 | 1.04 | 0.38 | 98 | 1007.4 |
| 20260509110003 | 10 | 140 | 0.0 | 4.8 | 0.00 | 1.04 | 0.38 | 98 | 1007.3 |
| 20260509105903 | 10 | 140 | 0.0 | 4.8 | 0.00 | 1.04 | 0.38 | 97 | 1007.3 |
| 20260509105703 | 10 | 137 | 1.6 | 4.8 | 0.00 | 1.04 | 0.38 | 97 | 1007.3 |
| 20260509105404 | 10 | 136 | 1.6 | 4.8 | 0.00 | 1.04 | 0.38 | 97 | 1007.4 |
| 20260509105306 | 10 | 135 | 1.6 | 4.8 | 0.00 | 1.04 | 0.38 | 97 | 1007.4 |
| 20260509105126 | 10 | 131 | 0.0 | 4.8 | 0.00 | 1.04 | 0.38 | 97 | 1007.3 |
| 20260509105003 | 10 | 126 | 0.0 | 3.2 | 0.00 | 1.04 | 0.38 | 97 | 1007.3 |
| 20260509104903 | 10 | 126 | 0.0 | 3.2 | 0.00 | 1.04 | 0.38 | 97 | 1007.3 |
| 20260509104803 | 10 | 121 | 0.0 | 3.2 | 0.00 | 1.04 | 0.38 | 97 | 1007.1 |